Wetterdaten: Montag, 13.02.2017
Datum Zeit Temp. Aussen Temp. o. S. +5cm Feuchte Auss BlattFeu 1 Luftdruck Regen Sonnenschein Regendauer Solar Windben Empfang
13.02.2017 00:00 0,5 C 0,6 C -1,1 C 92 % 1 lf 1028,0 hPa 0,0 l/m 0 min 0 min 5 W/m 12,6 km/h (3 Bft) 95,74 %
13.02.2017 00:02 0,5 C 0,6 C -1,7 C 92 % 1 lf 1028,1 hPa 0,0 l/m 0 min 0 min 5 W/m 14,6 km/h (3 Bft) 95,56 %
13.02.2017 00:05 0,5 C 0,6 C -1,7 C 92 % 1 lf 1028,1 hPa 0,0 l/m 0 min 0 min 5 W/m 12,6 km/h (3 Bft) 92,31 %
13.02.2017 00:06 0,5 C 0,6 C -1,7 C 92 % 1 lf 1028,1 hPa 0,0 l/m 0 min 0 min 5 W/m 6,3 km/h (2 Bft) 95,65 %
13.02.2017 00:08 0,5 C 0,0 C -1,7 C 92 % 1 lf 1028,0 hPa 0,0 l/m 0 min 0 min 5 W/m 6,3 km/h (2 Bft) 97,87 %
13.02.2017 00:10 0,5 C 0,0 C -1,7 C 92 % 1 lf 1028,1 hPa 0,0 l/m 0 min 0 min 5 W/m 10,5 km/h (2 Bft) 95,74 %
13.02.2017 00:12 0,4 C 0,0 C -1,7 C 92 % 1 lf 1028,1 hPa 0,0 l/m 0 min 0 min 5 W/m 6,3 km/h (2 Bft) 91,49 %
13.02.2017 00:14 0,4 C 0,0 C -1,7 C 92 % 1 lf 1028,0 hPa 0,0 l/m 0 min 0 min 0 W/m 12,6 km/h (3 Bft) 91,49 %
13.02.2017 00:16 0,4 C 0,0 C -1,7 C 92 % 1 lf 1028,0 hPa 0,0 l/m 0 min 0 min 5 W/m 14,6 km/h (3 Bft) 97,50 %
13.02.2017 00:18 0,4 C 0,6 C -1,7 C 92 % 1 lf 1028,1 hPa 0,0 l/m 0 min 0 min 5 W/m 16,7 km/h (3 Bft) 97,87 %
13.02.2017 00:20 0,4 C 0,6 C -1,7 C 92 % 1 lf 1028,1 hPa 0,0 l/m 0 min 0 min 5 W/m 14,6 km/h (3 Bft) 95,74 %
13.02.2017 00:22 0,3 C 0,6 C -1,7 C 92 % 1 lf 1028,1 hPa 0,0 l/m 0 min 0 min 5 W/m 18,8 km/h (3 Bft) 95,74 %
13.02.2017 00:24 0,3 C 0,6 C -1,7 C 92 % 1 lf 1028,1 hPa 0,0 l/m 0 min 0 min 5 W/m 14,6 km/h (3 Bft) 96,23 %
13.02.2017 00:26 0,3 C 0,6 C -1,7 C 92 % 1 lf 1028,1 hPa 0,0 l/m 0 min 0 min 5 W/m 16,7 km/h (3 Bft) 95,74 %
13.02.2017 00:28 0,3 C 0,6 C -1,7 C 92 % 1 lf 1028,1 hPa 0,0 l/m 0 min 0 min 5 W/m 18,8 km/h (3 Bft) 97,83 %
13.02.2017 00:30 0,3 C 0,6 C -1,7 C 92 % 1 lf 1028,1 hPa 0,0 l/m 0 min 0 min 5 W/m 14,6 km/h (3 Bft) 97,87 %
13.02.2017 00:32 0,3 C 0,6 C -1,1 C 92 % 1 lf 1028,0 hPa 0,0 l/m 0 min 0 min 5 W/m 16,7 km/h (3 Bft) 95,12 %
13.02.2017 00:34 0,3 C 0,6 C -1,1 C 92 % 1 lf 1028,1 hPa 0,0 l/m 0 min 0 min 5 W/m 14,6 km/h (3 Bft) 96,23 %
13.02.2017 00:36 0,3 C 0,6 C -1,1 C 92 % 1 lf 1028,1 hPa 0,0 l/m 0 min 0 min 5 W/m 14,6 km/h (3 Bft) 96,00 %
13.02.2017 00:38 0,3 C 0,6 C -1,1 C 92 % 1 lf 1028,0 hPa 0,0 l/m 0 min 0 min 5 W/m 14,6 km/h (3 Bft) 97,83 %
13.02.2017 00:40 0,3 C 0,6 C -1,1 C 92 % 1 lf 1028,0 hPa 0,0 l/m 0 min 0 min 5 W/m 16,7 km/h (3 Bft) 97,87 %
13.02.2017 00:42 0,3 C 0,6 C -1,1 C 92 % 1 lf 1028,0 hPa 0,0 l/m 0 min 0 min 5 W/m 10,5 km/h (2 Bft) 97,87 %
13.02.2017 00:44 0,3 C 0,6 C -1,1 C 92 % 1 lf 1028,0 hPa 0,0 l/m 0 min 0 min 5 W/m 14,6 km/h (3 Bft) 93,62 %
13.02.2017 00:46 0,3 C 0,6 C -1,7 C 92 % 1 lf 1028,0 hPa 0,0 l/m 0 min 0 min 5 W/m 10,5 km/h (2 Bft) 95,74 %
13.02.2017 00:48 0,2 C 0,0 C -1,7 C 92 % 1 lf 1028,0 hPa 0,0 l/m 0 min 0 min 5 W/m 14,6 km/h (3 Bft) 97,87 %
13.02.2017 00:50 0,2 C 0,0 C -1,7 C 92 % 1 lf 1027,9 hPa 0,0 l/m 0 min 0 min 5 W/m 14,6 km/h (3 Bft) 97,83 %
13.02.2017 00:52 0,2 C 0,0 C -1,7 C 93 % 1 lf 1028,0 hPa 0,0 l/m 0 min 0 min 5 W/m 14,6 km/h (3 Bft) 95,74 %
13.02.2017 00:54 0,2 C 0,0 C -1,1 C 93 % 1 lf 1028,0 hPa 0,0 l/m 0 min 0 min 5 W/m 12,6 km/h (3 Bft) 97,87 %
13.02.2017 00:56 0,2 C 0,0 C -1,7 C 93 % 1 lf 1028,0 hPa 0,0 l/m 0 min 0 min 5 W/m 12,6 km/h (3 Bft) 95,74 %
13.02.2017 00:58 0,2 C 0,0 C -1,7 C 93 % 1 lf 1028,0 hPa 0,0 l/m 0 min 0 min 5 W/m 6,3 km/h (2 Bft) 95,74 %
13.02.2017 01:00 0,2 C 0,0 C -1,7 C 93 % 1 lf 1028,0 hPa 0,0 l/m 0 min 0 min 5 W/m 6,3 km/h (2 Bft) 100,00 %
13.02.2017 01:02 0,2 C 0,0 C -1,7 C 92 % 1 lf 1028,0 hPa 0,0 l/m 0 min 0 min 5 W/m 8,4 km/h (2 Bft) 97,83 %
13.02.2017 01:04 0,2 C 0,0 C -1,7 C 93 % 1 lf 1028,0 hPa 0,0 l/m 0 min 0 min 5 W/m 10,5 km/h (2 Bft) 97,87 %
13.02.2017 01:06 0,2 C 0,0 C -1,7 C 93 % 1 lf 1028,0 hPa 0,0 l/m 0 min 0 min 5 W/m 10,5 km/h (2 Bft) 94,74 %
13.02.2017 01:08 0,1 C 0,0 C -1,7 C 93 % 1 lf 1028,0 hPa 0,0 l/m 0 min 0 min 5 W/m 12,6 km/h (3 Bft) 95,74 %
13.02.2017 01:10 0,1 C 0,0 C -1,7 C 93 % 1 lf 1028,0 hPa 0,0 l/m 0 min 0 min 5 W/m 14,6 km/h (3 Bft) 95,74 %
13.02.2017 01:12 0,1 C 0,0 C -1,7 C 93 % 1 lf 1028,0 hPa 0,0 l/m 0 min 0 min 5 W/m 14,6 km/h (3 Bft) 95,74 %
13.02.2017 01:14 0,1 C 0,0 C -1,7 C 93 % 1 lf 1028,0 hPa 0,0 l/m 0 min 0 min 5 W/m 14,6 km/h (3 Bft) 91,30 %
13.02.2017 01:16 0,1 C 0,0 C -2,2 C 93 % 1 lf 1028,0 hPa 0,0 l/m 0 min 0 min 2 W/m 10,5 km/h (2 Bft) 93,62 %
13.02.2017 01:18 0,1 C 0,0 C -2,2 C 93 % 1 lf 1028,0 hPa 0,0 l/m 0 min 0 min 0 W/m 10,5 km/h (2 Bft) 91,49 %
13.02.2017 01:20 0,0 C 0,0 C -1,7 C 93 % 1 lf 1028,0 hPa 0,0 l/m 0 min 0 min 0 W/m 10,5 km/h (2 Bft) 97,87 %
13.02.2017 01:22 0,0 C 0,0 C -2,2 C 93 % 1 lf 1027,9 hPa 0,0 l/m 0 min 0 min 0 W/m 10,5 km/h (2 Bft) 97,83 %
13.02.2017 01:24 0,0 C 0,0 C -2,2 C 93 % 1 lf 1027,9 hPa 0,0 l/m 0 min 0 min 0 W/m 12,6 km/h (3 Bft) 97,87 %
13.02.2017 01:26 0,0 C 0,0 C -2,2 C 93 % 1 lf 1027,9 hPa 0,0 l/m 0 min 0 min 0 W/m 12,6 km/h (3 Bft) 95,65 %
13.02.2017 01:28 -0,1 C 0,0 C -2,2 C 93 % 1 lf 1028,0 hPa 0,0 l/m 0 min 0 min 0 W/m 12,6 km/h (3 Bft) 93,62 %
13.02.2017 01:30 -0,1 C 0,0 C -2,2 C 93 % 1 lf 1028,0 hPa 0,0 l/m 0 min 0 min 0 W/m 16,7 km/h (3 Bft) 95,74 %
13.02.2017 01:32 -0,1 C 0,0 C -2,2 C 93 % 1 lf 1027,9 hPa 0,0 l/m 0 min 0 min 0 W/m 14,6 km/h (3 Bft) 91,49 %
13.02.2017 01:34 -0,1 C 0,0 C -2,2 C 93 % 1 lf 1027,9 hPa 0,0 l/m 0 min 0 min 0 W/m 14,6 km/h (3 Bft) 95,74 %
13.02.2017 01:36 -0,1 C 0,0 C -2,2 C 93 % 1 lf 1027,9 hPa 0,0 l/m 0 min 0 min 0 W/m 14,6 km/h (3 Bft) 93,10 %
13.02.2017 01:38 -0,2 C 0,0 C -1,7 C 93 % 1 lf 1027,9 hPa 0,0 l/m 0 min 0 min 0 W/m 14,6 km/h (3 Bft) 95,74 %
13.02.2017 01:40 -0,2 C 0,0 C -1,7 C 93 % 1 lf 1027,9 hPa 0,0 l/m 0 min 0 min 0 W/m 10,5 km/h (2 Bft) 95,74 %
13.02.2017 01:42 -0,2 C 0,0 C -2,2 C 93 % 1 lf 1028,0 hPa 0,0 l/m 0 min 0 min 0 W/m 12,6 km/h (3 Bft) 97,87 %
13.02.2017 01:44 -0,2 C 0,0 C -2,2 C 93 % 1 lf 1028,0 hPa 0,0 l/m 0 min 0 min 0 W/m 12,6 km/h (3 Bft) 93,62 %
13.02.2017 01:46 -0,2 C 0,0 C -2,2 C 93 % 1 lf 1028,0 hPa 0,0 l/m 0 min 0 min 0 W/m 12,6 km/h (3 Bft) 93,62 %
13.02.2017 01:48 -0,2 C 0,0 C -2,2 C 93 % 1 lf 1028,0 hPa 0,0 l/m 0 min 0 min 0 W/m 8,4 km/h (2 Bft) 95,65 %
13.02.2017 01:50 -0,2 C -0,6 C -2,2 C 93 % 1 lf 1028,0 hPa 0,0 l/m 0 min 0 min 0 W/m 10,5 km/h (2 Bft) 93,62 %
13.02.2017 01:52 -0,3 C -0,6 C -2,2 C 93 % 1 lf 1027,9 hPa 0,0 l/m 0 min 0 min 0 W/m 10,5 km/h (2 Bft) 91,49 %
13.02.2017 01:54 -0,3 C -0,6 C -2,2 C 93 % 1 lf 1028,0 hPa 0,0 l/m 0 min 0 min 0 W/m 4,2 km/h (1 Bft) 97,87 %
13.02.2017 01:56 -0,3 C -1,1 C -2,2 C 93 % 1 lf 1028,0 hPa 0,0 l/m 0 min 0 min 0 W/m 10,5 km/h (2 Bft) 100,00 %
13.02.2017 01:58 -0,3 C -1,1 C -2,2 C 93 % 2 lf 1028,0 hPa 0,0 l/m 0 min 0 min 1 W/m 4,2 km/h (1 Bft) 93,48 %
13.02.2017 02:00 -0,3 C -0,6 C -2,2 C 93 % 2 lf 1028,0 hPa 0,0 l/m 0 min 0 min 5 W/m 10,5 km/h (2 Bft) 97,87 %
13.02.2017 02:02 -0,3 C -0,6 C -2,2 C 93 % 2 lf 1028,0 hPa 0,0 l/m 0 min 0 min 5 W/m 8,4 km/h (2 Bft) 91,49 %
13.02.2017 02:04 -0,3 C -0,6 C -2,2 C 93 % 2 lf 1027,9 hPa 0,0 l/m 0 min 0 min 5 W/m 10,5 km/h (2 Bft) 100,00 %
13.02.2017 02:06 -0,4 C -0,6 C -2,2 C 93 % 2 lf 1027,9 hPa 0,0 l/m 0 min 0 min 5 W/m 10,5 km/h (2 Bft) 100,00 %
13.02.2017 02:08 -0,4 C -0,6 C -2,2 C 93 % 2 lf 1028,0 hPa 0,0 l/m 0 min 0 min 5 W/m 10,5 km/h (2 Bft) 97,87 %
13.02.2017 02:10 -0,4 C -0,6 C -2,2 C 93 % 2 lf 1027,9 hPa 0,0 l/m 0 min 0 min 5 W/m 10,5 km/h (2 Bft) 100,00 %
13.02.2017 02:12 -0,4 C -0,6 C -2,2 C 93 % 2 lf 1027,9 hPa 0,0 l/m 0 min 0 min 5 W/m 10,5 km/h (2 Bft) 100,00 %
13.02.2017 02:14 -0,4 C -0,6 C -2,2 C 93 % 2 lf 1027,9 hPa 0,0 l/m 0 min 0 min 5 W/m 10,5 km/h (2 Bft) 100,00 %
13.02.2017 02:16 -0,4 C -0,6 C -2,2 C 93 % 2 lf 1027,9 hPa 0,0 l/m 0 min 0 min 5 W/m 18,8 km/h (3 Bft) 100,00 %
13.02.2017 02:18 -0,4 C -0,6 C -2,2 C 93 % 2 lf 1027,9 hPa 0,0 l/m 0 min 0 min 5 W/m 16,7 km/h (3 Bft) 97,87 %
13.02.2017 02:20 -0,4 C 0,0 C -2,2 C 93 % 2 lf 1027,9 hPa 0,0 l/m 0 min 0 min 5 W/m 14,6 km/h (3 Bft) 100,00 %
13.02.2017 02:22 -0,4 C 0,0 C -2,2 C 93 % 2 lf 1027,9 hPa 0,0 l/m 0 min 0 min 5 W/m 14,6 km/h (3 Bft) 100,00 %
13.02.2017 02:24 -0,4 C -0,6 C -2,2 C 93 % 2 lf 1028,0 hPa 0,0 l/m 0 min 0 min 5 W/m 14,6 km/h (3 Bft) 97,83 %
13.02.2017 02:26 -0,4 C -0,6 C -2,2 C 93 % 2 lf 1027,9 hPa 0,0 l/m 0 min 0 min 5 W/m 10,5 km/h (2 Bft) 97,87 %
13.02.2017 02:28 -0,4 C -0,6 C -2,2 C 94 % 2 lf 1027,9 hPa 0,0 l/m 0 min 0 min 5 W/m 10,5 km/h (2 Bft) 97,87 %
13.02.2017 02:30 -0,4 C -0,6 C -2,2 C 94 % 2 lf 1027,9 hPa 0,0 l/m 0 min 0 min 5 W/m 10,5 km/h (2 Bft) 95,74 %
13.02.2017 02:32 -0,4 C -0,6 C -2,2 C 94 % 2 lf 1028,0 hPa 0,0 l/m 0 min 0 min 5 W/m 12,6 km/h (3 Bft) 97,87 %
13.02.2017 02:34 -0,5 C -0,6 C -2,2 C 94 % 2 lf 1028,1 hPa 0,0 l/m 0 min 0 min 5 W/m 12,6 km/h (3 Bft) 93,62 %
13.02.2017 02:36 -0,4 C -0,6 C -2,2 C 94 % 2 lf 1028,1 hPa 0,0 l/m 0 min 0 min 5 W/m 10,5 km/h (2 Bft) 96,23 %
13.02.2017 02:38 -0,5 C -0,6 C -2,2 C 94 % 2 lf 1028,2 hPa 0,0 l/m 0 min 0 min 5 W/m 12,6 km/h (3 Bft) 97,87 %
13.02.2017 02:40 -0,5 C -0,6 C -2,2 C 94 % 2 lf 1028,2 hPa 0,0 l/m 0 min 0 min 5 W/m 10,5 km/h (2 Bft) 97,87 %
13.02.2017 02:42 -0,5 C -0,6 C -2,2 C 94 % 2 lf 1028,1 hPa 0,0 l/m 0 min 0 min 5 W/m 10,5 km/h (2 Bft) 93,62 %
13.02.2017 02:44 -0,5 C -1,1 C -2,2 C 94 % 2 lf 1028,2 hPa 0,0 l/m 0 min 0 min 5 W/m 6,3 km/h (2 Bft) 97,87 %
13.02.2017 02:46 -0,5 C -0,6 C -2,2 C 94 % 2 lf 1028,2 hPa 0,0 l/m 0 min 0 min 5 W/m 6,3 km/h (2 Bft) 95,65 %
13.02.2017 02:48 -0,6 C -1,1 C -2,8 C 94 % 2 lf 1028,2 hPa 0,0 l/m 0 min 0 min 5 W/m 6,3 km/h (2 Bft) 97,87 %
13.02.2017 02:50 -0,6 C -0,6 C -2,8 C 94 % 2 lf 1028,3 hPa 0,0 l/m 0 min 0 min 5 W/m 10,5 km/h (2 Bft) 93,62 %
13.02.2017 02:52 -0,6 C -0,6 C -2,8 C 94 % 2 lf 1028,2 hPa 0,0 l/m 0 min 0 min 5 W/m 6,3 km/h (2 Bft) 95,74 %
13.02.2017 02:54 -0,6 C -0,6 C -2,8 C 94 % 3 lf 1028,2 hPa 0,0 l/m 0 min 0 min 5 W/m 10,5 km/h (2 Bft) 97,87 %
13.02.2017 02:56 -0,6 C -1,1 C -2,8 C 94 % 3 lf 1028,3 hPa 0,0 l/m 0 min 0 min 5 W/m 6,3 km/h (2 Bft) 95,74 %
13.02.2017 02:58 -0,6 C -1,1 C -2,8 C 94 % 3 lf 1028,3 hPa 0,0 l/m 0 min 0 min 5 W/m 6,3 km/h (2 Bft) 95,65 %
13.02.2017 03:00 -0,6 C -0,6 C -2,8 C 94 % 3 lf 1028,4 hPa 0,0 l/m 0 min 0 min 5 W/m 6,3 km/h (2 Bft) 97,87 %
13.02.2017 03:02 -0,7 C -0,6 C -2,8 C 94 % 3 lf 1028,4 hPa 0,0 l/m 0 min 0 min 5 W/m 10,5 km/h (2 Bft) 95,74 %
13.02.2017 03:04 -0,7 C -1,1 C -2,8 C 94 % 3 lf 1028,4 hPa 0,0 l/m 0 min 0 min 5 W/m 4,2 km/h (1 Bft) 97,87 %
13.02.2017 03:06 -0,7 C -1,1 C -2,8 C 94 % 3 lf 1028,4 hPa 0,0 l/m 0 min 0 min 5 W/m 4,2 km/h (1 Bft) 94,00 %
13.02.2017 03:08 -0,7 C -1,1 C -2,8 C 94 % 3 lf 1028,4 hPa 0,0 l/m 0 min 0 min 5 W/m 10,5 km/h (2 Bft) 97,83 %
13.02.2017 03:10 -0,7 C -1,1 C -2,8 C 94 % 3 lf 1028,4 hPa 0,0 l/m 0 min 0 min 5 W/m 6,3 km/h (2 Bft) 95,74 %
13.02.2017 03:12 -0,7 C -1,1 C -2,8 C 94 % 3 lf 1028,4 hPa 0,0 l/m 0 min 0 min 5 W/m 6,3 km/h (2 Bft) 97,87 %
13.02.2017 03:14 -0,8 C -1,1 C -2,8 C 94 % 3 lf 1028,4 hPa 0,0 l/m 0 min 0 min 0 W/m 10,5 km/h (2 Bft) 95,74 %
13.02.2017 03:16 -0,8 C -1,7 C -2,8 C 94 % 3 lf 1028,4 hPa 0,0 l/m 0 min 0 min 0 W/m 10,5 km/h (2 Bft) 97,87 %
13.02.2017 03:18 -0,8 C -1,1 C -2,8 C 94 % 3 lf 1028,4 hPa 0,0 l/m 0 min 0 min 0 W/m 10,5 km/h (2 Bft) 100,00 %
13.02.2017 03:20 -0,8 C -1,1 C -2,8 C 94 % 4 lf 1028,4 hPa 0,0 l/m 0 min 0 min 0 W/m 8,4 km/h (2 Bft) 97,83 %
13.02.2017 03:22 -0,8 C -1,1 C -2,8 C 94 % 4 lf 1028,4 hPa 0,0 l/m 0 min 0 min 0 W/m 8,4 km/h (2 Bft) 95,74 %
13.02.2017 03:24 -0,8 C -1,1 C -2,8 C 94 % 4 lf 1028,4 hPa 0,0 l/m 0 min 0 min 0 W/m 6,3 km/h (2 Bft) 95,74 %
13.02.2017 03:26 -0,9 C -1,1 C -2,8 C 94 % 4 lf 1028,3 hPa 0,0 l/m 0 min 0 min 0 W/m 6,3 km/h (2 Bft) 97,87 %
13.02.2017 03:28 -0,9 C -1,1 C -2,8 C 94 % 4 lf 1028,4 hPa 0,0 l/m 0 min 0 min 0 W/m 6,3 km/h (2 Bft) 93,62 %
13.02.2017 03:30 -0,9 C -1,1 C -2,8 C 94 % 4 lf 1028,3 hPa 0,0 l/m 0 min 0 min 0 W/m 10,5 km/h (2 Bft) 97,87 %
13.02.2017 03:32 -0,9 C -1,1 C -2,8 C 94 % 4 lf 1028,3 hPa 0,0 l/m 0 min 0 min 0 W/m 10,5 km/h (2 Bft) 95,65 %
13.02.2017 03:34 -0,9 C -1,1 C -2,8 C 94 % 4 lf 1028,2 hPa 0,0 l/m 0 min 0 min 0 W/m 10,5 km/h (2 Bft) 95,74 %
13.02.2017 03:36 -0,9 C -1,1 C -2,8 C 94 % 4 lf 1028,2 hPa 0,0 l/m 0 min 0 min 0 W/m 6,3 km/h (2 Bft) 95,74 %
13.02.2017 03:38 -0,9 C -1,1 C -2,8 C 94 % 4 lf 1028,3 hPa 0,0 l/m 0 min 0 min 0 W/m 10,5 km/h (2 Bft) 95,74 %
13.02.2017 03:40 -1,0 C -1,1 C -2,8 C 94 % 4 lf 1028,2 hPa 0,0 l/m 0 min 0 min 0 W/m 6,3 km/h (2 Bft) 95,74 %
13.02.2017 03:42 -1,0 C -1,1 C -2,8 C 94 % 5 lf 1028,3 hPa 0,0 l/m 0 min 0 min 0 W/m 10,5 km/h (2 Bft) 93,62 %
13.02.2017 03:44 -1,0 C -1,1 C -2,8 C 94 % 5 lf 1028,2 hPa 0,0 l/m 0 min 0 min 0 W/m 8,4 km/h (2 Bft) 93,48 %
13.02.2017 03:46 -1,0 C -0,6 C -2,8 C 94 % 5 lf 1028,3 hPa 0,0 l/m 0 min 0 min 0 W/m 12,6 km/h (3 Bft) 93,62 %
13.02.2017 03:48 -1,0 C -1,1 C -2,8 C 94 % 5 lf 1028,3 hPa 0,0 l/m 0 min 0 min 0 W/m 12,6 km/h (3 Bft) 95,74 %
13.02.2017 03:50 -1,0 C -1,1 C -2,8 C 94 % 6 lf 1028,3 hPa 0,0 l/m 0 min 0 min 0 W/m 10,5 km/h (2 Bft) 95,74 %
13.02.2017 03:52 -1,0 C -1,1 C -2,8 C 94 % 6 lf 1028,2 hPa 0,0 l/m 0 min 0 min 0 W/m 14,6 km/h (3 Bft) 95,74 %
13.02.2017 03:54 -1,0 C -1,1 C -2,8 C 94 % 6 lf 1028,2 hPa 0,0 l/m 0 min 0 min 0 W/m 10,5 km/h (2 Bft) 95,74 %
13.02.2017 03:56 -1,0 C -1,1 C -2,8 C 94 % 6 lf 1028,1 hPa 0,0 l/m 0 min 0 min 0 W/m 10,5 km/h (2 Bft) 97,83 %
13.02.2017 03:58 -1,0 C -1,1 C -2,8 C 94 % 6 lf 1028,1 hPa 0,0 l/m 0 min 0 min 0 W/m 14,6 km/h (3 Bft) 95,74 %
13.02.2017 04:00 -1,0 C -1,1 C -2,8 C 94 % 6 lf 1028,0 hPa 0,0 l/m 0 min 0 min 0 W/m 14,6 km/h (3 Bft) 91,49 %
13.02.2017 04:02 -1,0 C -0,6 C -2,8 C 94 % 6 lf 1028,0 hPa 0,0 l/m 0 min 0 min 0 W/m 12,6 km/h (3 Bft) 97,06 %
13.02.2017 04:04 -1,0 C -0,6 C -2,8 C 94 % 7 lf 1027,9 hPa 0,0 l/m 0 min 0 min 0 W/m 12,6 km/h (3 Bft) 97,87 %
13.02.2017 04:06 -0,9 C -0,6 C -2,2 C 94 % 7 lf 1028,0 hPa 0,0 l/m 0 min 0 min 0 W/m 14,6 km/h (3 Bft) 93,75 %
13.02.2017 04:08 -0,9 C -0,6 C -2,2 C 94 % 7 lf 1028,1 hPa 0,0 l/m 0 min 0 min 0 W/m 12,6 km/h (3 Bft) 93,62 %
13.02.2017 04:10 -0,9 C -0,6 C -2,2 C 94 % 7 lf 1028,1 hPa 0,0 l/m 0 min 0 min 0 W/m 12,6 km/h (3 Bft) 97,87 %
13.02.2017 04:12 -0,9 C -0,6 C -2,2 C 94 % 7 lf 1028,1 hPa 0,0 l/m 0 min 0 min 0 W/m 16,7 km/h (3 Bft) 95,74 %
13.02.2017 04:14 -0,9 C -0,6 C -2,2 C 94 % 7 lf 1028,1 hPa 0,0 l/m 0 min 0 min 0 W/m 12,6 km/h (3 Bft) 95,74 %
13.02.2017 04:16 -0,9 C -1,1 C -2,2 C 94 % 7 lf 1028,0 hPa 0,0 l/m 0 min 0 min 0 W/m 10,5 km/h (2 Bft) 95,74 %
13.02.2017 04:18 -0,9 C -1,1 C -2,2 C 94 % 7 lf 1028,0 hPa 0,0 l/m 0 min 0 min 0 W/m 12,6 km/h (3 Bft) 97,83 %
13.02.2017 04:20 -0,9 C -0,6 C -2,8 C 95 % 7 lf 1028,0 hPa 0,0 l/m 0 min 0 min 0 W/m 10,5 km/h (2 Bft) 95,74 %
13.02.2017 04:22 -0,9 C -0,6 C -2,8 C 95 % 7 lf 1028,1 hPa 0,0 l/m 0 min 0 min 0 W/m 6,3 km/h (2 Bft) 97,87 %
13.02.2017 04:24 -0,9 C -1,1 C -2,8 C 94 % 7 lf 1028,2 hPa 0,0 l/m 0 min 0 min 0 W/m 8,4 km/h (2 Bft) 95,74 %
13.02.2017 04:26 -0,9 C -1,1 C -2,8 C 94 % 7 lf 1028,2 hPa 0,0 l/m 0 min 0 min 0 W/m 8,4 km/h (2 Bft) 100,00 %
13.02.2017 04:28 -0,9 C -1,1 C -2,8 C 94 % 7 lf 1028,2 hPa 0,0 l/m 0 min 0 min 0 W/m 12,6 km/h (3 Bft) 91,49 %
13.02.2017 04:30 -0,9 C -0,6 C -2,8 C 94 % 7 lf 1028,2 hPa 0,0 l/m 0 min 0 min 0 W/m 14,6 km/h (3 Bft) 97,83 %
13.02.2017 04:32 -0,9 C -0,6 C -2,2 C 94 % 7 lf 1028,1 hPa 0,0 l/m 0 min 0 min 0 W/m 16,7 km/h (3 Bft) 95,74 %
13.02.2017 04:34 -1,0 C -0,6 C -2,2 C 94 % 7 lf 1028,2 hPa 0,0 l/m 0 min 0 min 0 W/m 12,6 km/h (3 Bft) 97,87 %
13.02.2017 04:36 -1,0 C -0,6 C -2,2 C 95 % 7 lf 1028,1 hPa 0,0 l/m 0 min 0 min 0 W/m 12,6 km/h (3 Bft) 97,14 %
13.02.2017 04:38 -1,0 C -0,6 C -2,2 C 95 % 7 lf 1028,1 hPa 0,0 l/m 0 min 0 min 0 W/m 14,6 km/h (3 Bft) 95,74 %
13.02.2017 04:40 -0,9 C -0,6 C -2,2 C 95 % 7 lf 1028,1 hPa 0,0 l/m 0 min 0 min 0 W/m 16,7 km/h (3 Bft) 95,74 %
13.02.2017 04:42 -0,9 C -0,6 C -2,2 C 95 % 7 lf 1028,0 hPa 0,0 l/m 0 min 0 min 0 W/m 12,6 km/h (3 Bft) 97,87 %
13.02.2017 04:44 -0,9 C -0,6 C -2,2 C 95 % 7 lf 1028,1 hPa 0,0 l/m 0 min 0 min 0 W/m 14,6 km/h (3 Bft) 95,65 %
13.02.2017 04:46 -0,9 C -0,6 C -2,2 C 95 % 7 lf 1028,1 hPa 0,0 l/m 0 min 0 min 0 W/m 10,5 km/h (2 Bft) 95,74 %
13.02.2017 04:48 -0,9 C -0,6 C -2,2 C 95 % 7 lf 1028,1 hPa 0,0 l/m 0 min 0 min 0 W/m 16,7 km/h (3 Bft) 97,87 %
13.02.2017 04:50 -0,9 C -0,6 C -2,2 C 95 % 7 lf 1028,1 hPa 0,0 l/m 0 min 0 min 0 W/m 8,4 km/h (2 Bft) 97,87 %
13.02.2017 04:52 -0,9 C -0,6 C -2,2 C 95 % 7 lf 1028,1 hPa 0,0 l/m 0 min 0 min 0 W/m 14,6 km/h (3 Bft) 97,87 %
13.02.2017 04:54 -0,9 C -0,6 C -2,2 C 95 % 7 lf 1028,0 hPa 0,0 l/m 0 min 0 min 0 W/m 16,7 km/h (3 Bft) 95,74 %
13.02.2017 04:56 -0,9 C -0,6 C -2,2 C 95 % 7 lf 1028,0 hPa 0,0 l/m 0 min 0 min 0 W/m 16,7 km/h (3 Bft) 95,65 %
13.02.2017 04:58 -0,9 C -0,6 C -2,2 C 95 % 6 lf 1028,0 hPa 0,0 l/m 0 min 0 min 0 W/m 18,8 km/h (3 Bft) 97,87 %
13.02.2017 05:00 -0,9 C -0,6 C -2,2 C 95 % 6 lf 1028,1 hPa 0,0 l/m 0 min 0 min 0 W/m 16,7 km/h (3 Bft) 93,62 %
13.02.2017 05:02 -0,9 C -0,6 C -2,2 C 95 % 5 lf 1028,1 hPa 0,0 l/m 0 min 0 min 0 W/m 12,6 km/h (3 Bft) 95,74 %
13.02.2017 05:04 -0,9 C -0,6 C -2,2 C 95 % 5 lf 1028,2 hPa 0,0 l/m 0 min 0 min 0 W/m 18,8 km/h (3 Bft) 95,74 %
13.02.2017 05:06 -0,9 C -0,6 C -2,2 C 95 % 5 lf 1028,4 hPa 0,0 l/m 0 min 0 min 0 W/m 14,6 km/h (3 Bft) 92,45 %
13.02.2017 05:08 -0,8 C -0,6 C -2,2 C 95 % 4 lf 1028,4 hPa 0,0 l/m 0 min 0 min 0 W/m 10,5 km/h (2 Bft) 97,87 %
13.02.2017 05:10 -0,8 C -0,6 C -2,2 C 95 % 4 lf 1028,3 hPa 0,0 l/m 0 min 0 min 0 W/m 16,7 km/h (3 Bft) 95,74 %
13.02.2017 05:12 -0,8 C -0,6 C -2,2 C 95 % 4 lf 1028,3 hPa 0,0 l/m 0 min 0 min 0 W/m 20,9 km/h (4 Bft) 95,74 %
13.02.2017 05:14 -0,8 C -0,6 C -2,2 C 95 % 4 lf 1028,3 hPa 0,0 l/m 0 min 0 min 0 W/m 20,9 km/h (4 Bft) 93,62 %
13.02.2017 05:16 -0,8 C 0,0 C -2,2 C 95 % 3 lf 1028,4 hPa 0,0 l/m 0 min 0 min 0 W/m 23,0 km/h (4 Bft) 95,74 %
13.02.2017 05:18 -0,8 C 0,0 C -2,2 C 95 % 3 lf 1028,3 hPa 0,0 l/m 0 min 0 min 0 W/m 23,0 km/h (4 Bft) 93,48 %
13.02.2017 05:20 -0,7 C 0,0 C -1,7 C 95 % 2 lf 1028,2 hPa 0,0 l/m 0 min 0 min 0 W/m 20,9 km/h (4 Bft) 95,74 %
13.02.2017 05:22 -0,7 C 0,0 C -1,7 C 95 % 2 lf 1028,2 hPa 0,0 l/m 0 min 0 min 0 W/m 20,9 km/h (4 Bft) 91,49 %
13.02.2017 05:24 -0,6 C 0,6 C -1,7 C 95 % 1 lf 1028,1 hPa 0,0 l/m 0 min 0 min 0 W/m 23,0 km/h (4 Bft) 95,74 %
13.02.2017 05:26 -0,6 C 0,6 C -1,7 C 95 % 1 lf 1028,1 hPa 0,0 l/m 0 min 0 min 0 W/m 18,8 km/h (3 Bft) 93,62 %
13.02.2017 05:28 -0,5 C 0,6 C -1,7 C 95 % 1 lf 1028,0 hPa 0,0 l/m 0 min 0 min 0 W/m 27,2 km/h (4 Bft) 95,65 %
13.02.2017 05:30 -0,4 C 0,6 C -1,7 C 95 % 0 lf 1028,0 hPa 0,0 l/m 0 min 0 min 0 W/m 23,0 km/h (4 Bft) 93,62 %
13.02.2017 05:32 -0,4 C 0,6 C -1,7 C 95 % 0 lf 1027,9 hPa 0,0 l/m 0 min 0 min 0 W/m 23,0 km/h (4 Bft) 93,62 %
13.02.2017 05:34 -0,3 C 0,6 C -1,7 C 95 % 0 lf 1028,0 hPa 0,0 l/m 0 min 0 min 0 W/m 27,2 km/h (4 Bft) 91,49 %
13.02.2017 05:36 -0,3 C 0,6 C -1,7 C 95 % 0 lf 1028,1 hPa 0,0 l/m 0 min 0 min 0 W/m 25,1 km/h (4 Bft) 90,00 %
13.02.2017 05:38 -0,2 C 0,6 C -1,7 C 95 % 0 lf 1028,0 hPa 0,0 l/m 0 min 0 min 0 W/m 18,8 km/h (3 Bft) 91,49 %
13.02.2017 05:40 -0,2 C 0,6 C -1,7 C 95 % 0 lf 1028,0 hPa 0,0 l/m 0 min 0 min 0 W/m 25,1 km/h (4 Bft) 95,65 %
13.02.2017 05:42 -0,2 C 0,6 C -1,7 C 95 % 0 lf 1027,9 hPa 0,0 l/m 0 min 0 min 0 W/m 31,4 km/h (5 Bft) 91,49 %
13.02.2017 05:44 -0,2 C 0,6 C -1,7 C 95 % 0 lf 1027,9 hPa 0,0 l/m 0 min 0 min 0 W/m 31,4 km/h (5 Bft) 97,87 %
13.02.2017 05:46 -0,1 C 0,6 C -1,7 C 95 % 0 lf 1027,9 hPa 0,0 l/m 0 min 0 min 0 W/m 31,4 km/h (5 Bft) 95,74 %
13.02.2017 05:48 -0,1 C 0,6 C -1,7 C 95 % 0 lf 1028,0 hPa 0,0 l/m 0 min 0 min 0 W/m 31,4 km/h (5 Bft) 93,62 %
13.02.2017 05:50 -0,1 C 0,6 C -1,7 C 95 % 0 lf 1028,0 hPa 0,0 l/m 0 min 0 min 0 W/m 29,3 km/h (5 Bft) 97,87 %
13.02.2017 05:52 -0,1 C 0,6 C -1,7 C 95 % 0 lf 1028,1 hPa 0,0 l/m 0 min 0 min 0 W/m 20,9 km/h (4 Bft) 97,83 %
13.02.2017 05:54 -0,1 C 0,6 C -1,7 C 95 % 0 lf 1028,2 hPa 0,0 l/m 0 min 0 min 0 W/m 16,7 km/h (3 Bft) 95,74 %
13.02.2017 05:56 -0,1 C 0,6 C -1,7 C 95 % 0 lf 1028,2 hPa 0,0 l/m 0 min 0 min 0 W/m 20,9 km/h (4 Bft) 95,74 %
13.02.2017 05:58 -0,1 C 0,6 C -1,7 C 95 % 0 lf 1028,1 hPa 0,0 l/m 0 min 0 min 0 W/m 14,6 km/h (3 Bft) 93,62 %
13.02.2017 06:00 -0,1 C 0,6 C -1,7 C 95 % 0 lf 1028,1 hPa 0,0 l/m 0 min 0 min 0 W/m 33,5 km/h (5 Bft) 97,87 %
13.02.2017 06:02 -0,1 C 0,6 C -1,7 C 95 % 0 lf 1028,1 hPa 0,0 l/m 0 min 0 min 0 W/m 20,9 km/h (4 Bft) 91,49 %
13.02.2017 06:04 -0,1 C 0,6 C -1,7 C 95 % 0 lf 1028,1 hPa 0,0 l/m 0 min 0 min 0 W/m 18,8 km/h (3 Bft) 95,83 %
13.02.2017 06:06 0,0 C 0,6 C -1,7 C 95 % 0 lf 1028,0 hPa 0,0 l/m 0 min 0 min 0 W/m 18,8 km/h (3 Bft) 97,14 %
13.02.2017 06:08 0,0 C 0,6 C -1,1 C 94 % 0 lf 1027,9 hPa 0,0 l/m 0 min 0 min 0 W/m 18,8 km/h (3 Bft) 95,74 %
13.02.2017 06:10 0,0 C 0,6 C -1,1 C 94 % 0 lf 1027,9 hPa 0,0 l/m 0 min 0 min 0 W/m 23,0 km/h (4 Bft) 97,87 %
13.02.2017 06:12 0,0 C 0,6 C -1,1 C 95 % 0 lf 1027,9 hPa 0,0 l/m 0 min 0 min 0 W/m 16,7 km/h (3 Bft) 95,74 %
13.02.2017 06:14 0,0 C 0,6 C -1,1 C 94 % 0 lf 1027,9 hPa 0,0 l/m 0 min 0 min 0 W/m 25,1 km/h (4 Bft) 95,74 %
13.02.2017 06:16 0,0 C 0,6 C -1,1 C 94 % 0 lf 1027,9 hPa 0,0 l/m 0 min 0 min 0 W/m 25,1 km/h (4 Bft) 91,30 %
13.02.2017 06:18 0,1 C 0,6 C -1,1 C 94 % 0 lf 1027,9 hPa 0,0 l/m 0 min 0 min 0 W/m 14,6 km/h (3 Bft) 97,87 %
13.02.2017 06:20 0,0 C 0,6 C -1,1 C 94 % 0 lf 1028,0 hPa 0,0 l/m 0 min 0 min 0 W/m 18,8 km/h (3 Bft) 97,87 %
13.02.2017 06:22 0,1 C 0,6 C -1,1 C 94 % 0 lf 1027,9 hPa 0,0 l/m 0 min 0 min 0 W/m 23,0 km/h (4 Bft) 93,62 %
13.02.2017 06:24 0,1 C 0,6 C -1,1 C 94 % 0 lf 1027,9 hPa 0,0 l/m 0 min 0 min 0 W/m 20,9 km/h (4 Bft) 97,87 %
13.02.2017 06:26 0,1 C 0,6 C -1,1 C 94 % 0 lf 1028,0 hPa 0,0 l/m 0 min 0 min 0 W/m 16,7 km/h (3 Bft) 93,62 %
13.02.2017 06:28 0,1 C 0,6 C -1,1 C 94 % 0 lf 1028,0 hPa 0,0 l/m 0 min 0 min 0 W/m 18,8 km/h (3 Bft) 95,65 %
13.02.2017 06:30 0,1 C 0,6 C -1,1 C 94 % 0 lf 1028,0 hPa 0,0 l/m 0 min 0 min 0 W/m 14,6 km/h (3 Bft) 97,87 %
13.02.2017 06:32 0,1 C 0,6 C -1,1 C 94 % 0 lf 1027,9 hPa 0,0 l/m 0 min 0 min 0 W/m 20,9 km/h (4 Bft) 93,62 %
13.02.2017 06:34 0,1 C 0,6 C -1,1 C 94 % 0 lf 1028,0 hPa 0,0 l/m 0 min 0 min 0 W/m 20,9 km/h (4 Bft) 97,87 %
13.02.2017 06:36 0,1 C 0,6 C -1,1 C 94 % 0 lf 1028,1 hPa 0,0 l/m 0 min 0 min 0 W/m 16,7 km/h (3 Bft) 98,15 %
13.02.2017 06:38 0,2 C 0,6 C -1,1 C 93 % 0 lf 1028,1 hPa 0,0 l/m 0 min 0 min 0 W/m 18,8 km/h (3 Bft) 97,83 %
13.02.2017 06:40 0,2 C 0,6 C -1,1 C 94 % 0 lf 1028,1 hPa 0,0 l/m 0 min 0 min 0 W/m 20,9 km/h (4 Bft) 97,87 %
13.02.2017 06:42 0,2 C 0,6 C -1,1 C 94 % 0 lf 1028,1 hPa 0,0 l/m 0 min 0 min 0 W/m 16,7 km/h (3 Bft) 95,74 %
13.02.2017 06:44 0,2 C 0,6 C -1,1 C 94 % 0 lf 1028,1 hPa 0,0 l/m 0 min 0 min 0 W/m 18,8 km/h (3 Bft) 91,49 %
13.02.2017 06:46 0,2 C 0,6 C -1,1 C 93 % 0 lf 1028,1 hPa 0,0 l/m 0 min 0 min 0 W/m 14,6 km/h (3 Bft) 94,00 %
13.02.2017 06:48 0,2 C 0,6 C -1,1 C 93 % 0 lf 1028,1 hPa 0,0 l/m 0 min 0 min 0 W/m 12,6 km/h (3 Bft) 97,87 %
13.02.2017 06:50 0,2 C 0,6 C -1,1 C 93 % 0 lf 1028,1 hPa 0,0 l/m 0 min 0 min 0 W/m 16,7 km/h (3 Bft) 95,65 %
13.02.2017 06:52 0,2 C 0,6 C -1,1 C 93 % 0 lf 1028,1 hPa 0,0 l/m 0 min 0 min 0 W/m 18,8 km/h (3 Bft) 97,87 %
13.02.2017 06:54 0,2 C 0,6 C -1,1 C 93 % 0 lf 1028,1 hPa 0,0 l/m 0 min 0 min 0 W/m 16,7 km/h (3 Bft) 97,87 %
13.02.2017 06:56 0,2 C 0,6 C -0,6 C 93 % 0 lf 1028,0 hPa 0,0 l/m 0 min 0 min 0 W/m 12,6 km/h (3 Bft) 100,00 %
13.02.2017 06:58 0,2 C 0,6 C -1,1 C 93 % 0 lf 1027,9 hPa 0,0 l/m 0 min 0 min 0 W/m 18,8 km/h (3 Bft) 100,00 %
13.02.2017 07:00 0,3 C 0,6 C -0,6 C 93 % 0 lf 1027,8 hPa 0,0 l/m 0 min 0 min 0 W/m 18,8 km/h (3 Bft) 93,62 %
13.02.2017 07:02 0,3 C 0,6 C -1,1 C 93 % 0 lf 1027,9 hPa 0,0 l/m 0 min 0 min 0 W/m 18,8 km/h (3 Bft) 95,65 %
13.02.2017 07:04 0,3 C 0,6 C -1,1 C 93 % 0 lf 1027,9 hPa 0,0 l/m 0 min 0 min 0 W/m 20,9 km/h (4 Bft) 97,87 %
13.02.2017 07:06 0,3 C 0,6 C -0,6 C 93 % 0 lf 1027,8 hPa 0,0 l/m 0 min 0 min 0 W/m 18,8 km/h (3 Bft) 97,96 %
13.02.2017 07:08 0,3 C 0,6 C -0,6 C 93 % 0 lf 1027,7 hPa 0,0 l/m 0 min 0 min 0 W/m 16,7 km/h (3 Bft) 97,87 %
13.02.2017 07:10 0,3 C 0,6 C -0,6 C 93 % 0 lf 1027,8 hPa 0,0 l/m 0 min 0 min 0 W/m 16,7 km/h (3 Bft) 97,87 %
13.02.2017 07:12 0,3 C 0,6 C -0,6 C 93 % 0 lf 1027,8 hPa 0,0 l/m 0 min 0 min 0 W/m 18,8 km/h (3 Bft) 95,65 %
13.02.2017 07:14 0,3 C 0,6 C -0,6 C 93 % 0 lf 1027,8 hPa 0,0 l/m 0 min 0 min 0 W/m 18,8 km/h (3 Bft) 94,44 %
13.02.2017 07:16 0,3 C 0,6 C -0,6 C 93 % 0 lf 1027,7 hPa 0,0 l/m 0 min 0 min 0 W/m 23,0 km/h (4 Bft) 98,28 %
13.02.2017 07:18 0,3 C 0,6 C -0,6 C 93 % 0 lf 1027,8 hPa 0,0 l/m 0 min 0 min 0 W/m 20,9 km/h (4 Bft) 94,29 %
13.02.2017 07:20 0,3 C 0,6 C -0,6 C 93 % 0 lf 1027,8 hPa 0,0 l/m 0 min 0 min 0 W/m 20,9 km/h (4 Bft) 96,61 %
13.02.2017 07:22 0,3 C 0,6 C -0,6 C 93 % 0 lf 1027,8 hPa 0,0 l/m 0 min 0 min 0 W/m 16,7 km/h (3 Bft) 97,14 %
13.02.2017 07:24 0,4 C 1,1 C -0,6 C 93 % 0 lf 1027,9 hPa 0,0 l/m 0 min 0 min 0 W/m 20,9 km/h (4 Bft) 98,28 %
13.02.2017 07:26 0,4 C 1,1 C -0,6 C 93 % 0 lf 1027,7 hPa 0,0 l/m 0 min 0 min 0 W/m 20,9 km/h (4 Bft) 97,22 %
13.02.2017 07:28 0,4 C 1,1 C -0,6 C 93 % 0 lf 1027,7 hPa 0,0 l/m 0 min 0 min 0 W/m 18,8 km/h (3 Bft) 98,28 %
13.02.2017 07:30 0,4 C 1,1 C -0,6 C 93 % 0 lf 1027,7 hPa 0,0 l/m 0 min 0 min 0 W/m 18,8 km/h (3 Bft) 91,49 %
13.02.2017 07:32 0,4 C 1,1 C -0,6 C 93 % 0 lf 1027,9 hPa 0,0 l/m 0 min 0 min 0 W/m 18,8 km/h (3 Bft) 95,74 %
13.02.2017 07:34 0,5 C 1,1 C -0,6 C 93 % 0 lf 1028,1 hPa 0,0 l/m 0 min 0 min 0 W/m 27,2 km/h (4 Bft) 95,74 %
13.02.2017 07:36 0,5 C 1,1 C -0,6 C 93 % 0 lf 1028,1 hPa 0,0 l/m 0 min 0 min 0 W/m 20,9 km/h (4 Bft) 97,14 %
13.02.2017 07:38 0,5 C 1,1 C -0,6 C 93 % 0 lf 1028,2 hPa 0,0 l/m 0 min 0 min 9 W/m 20,9 km/h (4 Bft) 100,00 %
13.02.2017 07:40 0,5 C 1,1 C -0,6 C 93 % 0 lf 1028,2 hPa 0,0 l/m 0 min 0 min 9 W/m 31,4 km/h (5 Bft) 97,87 %
13.02.2017 07:42 0,5 C 1,1 C -0,6 C 92 % 0 lf 1028,3 hPa 0,0 l/m 0 min 0 min 9 W/m 23,0 km/h (4 Bft) 100,00 %
13.02.2017 07:44 0,5 C 1,1 C -0,6 C 93 % 0 lf 1028,2 hPa 0,0 l/m 0 min 0 min 10 W/m 16,7 km/h (3 Bft) 100,00 %
13.02.2017 07:46 0,5 C 1,1 C -0,6 C 93 % 0 lf 1028,1 hPa 0,0 l/m 0 min 0 min 11 W/m 23,0 km/h (4 Bft) 100,00 %
13.02.2017 07:48 0,5 C 1,1 C -0,6 C 93 % 0 lf 1028,0 hPa 0,0 l/m 0 min 0 min 11 W/m 20,9 km/h (4 Bft) 100,00 %
13.02.2017 07:50 0,5 C 1,1 C -0,6 C 93 % 0 lf 1028,1 hPa 0,0 l/m 0 min 0 min 12 W/m 14,6 km/h (3 Bft) 100,00 %
13.02.2017 07:52 0,5 C 1,1 C -0,6 C 92 % 0 lf 1028,1 hPa 0,0 l/m 0 min 0 min 12 W/m 16,7 km/h (3 Bft) 98,11 %
13.02.2017 07:54 0,5 C 1,1 C -0,6 C 92 % 0 lf 1028,1 hPa 0,0 l/m 0 min 0 min 12 W/m 16,7 km/h (3 Bft) 97,87 %
13.02.2017 07:56 0,5 C 1,1 C -0,6 C 92 % 0 lf 1028,0 hPa 0,0 l/m 0 min 0 min 13 W/m 20,9 km/h (4 Bft) 97,87 %
13.02.2017 07:58 0,5 C 1,1 C -0,6 C 92 % 0 lf 1028,1 hPa 0,0 l/m 0 min 0 min 14 W/m 18,8 km/h (3 Bft) 100,00 %
13.02.2017 08:00 0,6 C 1,1 C -0,6 C 92 % 0 lf 1028,2 hPa 0,0 l/m 0 min 0 min 14 W/m 23,0 km/h (4 Bft) 100,00 %
13.02.2017 08:02 0,6 C 1,1 C -0,6 C 92 % 0 lf 1028,1 hPa 0,0 l/m 0 min 0 min 16 W/m 29,3 km/h (5 Bft) 100,00 %
13.02.2017 08:04 0,6 C 1,1 C -0,6 C 92 % 0 lf 1028,3 hPa 0,0 l/m 0 min 0 min 16 W/m 20,9 km/h (4 Bft) 100,00 %
13.02.2017 08:06 0,6 C 1,1 C -0,6 C 92 % 0 lf 1028,2 hPa 0,0 l/m 0 min 0 min 16 W/m 18,8 km/h (3 Bft) 100,00 %
13.02.2017 08:08 0,6 C 1,1 C -0,6 C 92 % 0 lf 1028,3 hPa 0,0 l/m 0 min 0 min 18 W/m 18,8 km/h (3 Bft) 93,62 %
13.02.2017 08:10 0,7 C 1,1 C -0,6 C 92 % 0 lf 1028,3 hPa 0,0 l/m 0 min 0 min 13 W/m 20,9 km/h (4 Bft) 100,00 %
13.02.2017 08:12 0,7 C 1,1 C -0,6 C 92 % 0 lf 1028,3 hPa 0,0 l/m 0 min 0 min 10 W/m 27,2 km/h (4 Bft) 97,83 %
13.02.2017 08:14 0,7 C 1,1 C -0,6 C 92 % 0 lf 1028,3 hPa 0,0 l/m 0 min 0 min 12 W/m 29,3 km/h (5 Bft) 97,87 %
13.02.2017 08:16 0,7 C 1,1 C -0,6 C 92 % 0 lf 1028,4 hPa 0,0 l/m 0 min 0 min 12 W/m 27,2 km/h (4 Bft) 97,87 %
13.02.2017 08:18 0,7 C 1,1 C 0,0 C 92 % 0 lf 1028,4 hPa 0,0 l/m 0 min 0 min 12 W/m 29,3 km/h (5 Bft) 100,00 %
13.02.2017 08:20 0,7 C 1,1 C 0,0 C 92 % 0 lf 1028,4 hPa 0,0 l/m 0 min 0 min 14 W/m 23,0 km/h (4 Bft) 97,87 %
13.02.2017 08:22 0,7 C 1,1 C 0,0 C 92 % 0 lf 1028,4 hPa 0,0 l/m 0 min 0 min 22 W/m 29,3 km/h (5 Bft) 100,00 %
13.02.2017 08:24 0,7 C 1,1 C 0,0 C 92 % 0 lf 1028,4 hPa 0,0 l/m 0 min 0 min 26 W/m 25,1 km/h (4 Bft) 100,00 %
13.02.2017 08:26 0,7 C 1,1 C 0,0 C 92 % 0 lf 1028,4 hPa 0,0 l/m 0 min 0 min 26 W/m 20,9 km/h (4 Bft) 95,74 %
13.02.2017 08:28 0,7 C 1,1 C 0,0 C 92 % 0 lf 1028,3 hPa 0,0 l/m 0 min 0 min 27 W/m 27,2 km/h (4 Bft) 93,62 %
13.02.2017 08:30 0,8 C 1,1 C 0,0 C 92 % 0 lf 1028,3 hPa 0,0 l/m 0 min 0 min 29 W/m 27,2 km/h (4 Bft) 97,87 %
13.02.2017 08:32 0,8 C 1,1 C 0,0 C 91 % 0 lf 1028,3 hPa 0,0 l/m 0 min 0 min 32 W/m 18,8 km/h (3 Bft) 97,87 %
13.02.2017 08:34 0,8 C 1,1 C 0,0 C 91 % 0 lf 1028,4 hPa 0,0 l/m 0 min 0 min 32 W/m 20,9 km/h (4 Bft) 95,74 %
13.02.2017 08:36 0,8 C 1,1 C 0,0 C 91 % 0 lf 1028,5 hPa 0,0 l/m 0 min 0 min 32 W/m 20,9 km/h (4 Bft) 93,48 %
13.02.2017 08:38 0,8 C 1,7 C 0,0 C 91 % 0 lf 1028,4 hPa 0,0 l/m 0 min 0 min 35 W/m 29,3 km/h (5 Bft) 93,62 %
13.02.2017 08:40 0,8 C 1,7 C 0,0 C 91 % 0 lf 1028,4 hPa 0,0 l/m 0 min 0 min 35 W/m 16,7 km/h (3 Bft) 95,74 %
13.02.2017 08:42 0,8 C 1,7 C 0,0 C 91 % 0 lf 1028,4 hPa 0,0 l/m 0 min 0 min 36 W/m 20,9 km/h (4 Bft) 91,49 %
13.02.2017 08:44 0,8 C 1,7 C 0,0 C 91 % 0 lf 1028,4 hPa 0,0 l/m 0 min 0 min 38 W/m 23,0 km/h (4 Bft) 97,87 %
13.02.2017 08:46 0,9 C 1,7 C 0,0 C 91 % 0 lf 1028,3 hPa 0,0 l/m 0 min 0 min 38 W/m 27,2 km/h (4 Bft) 89,13 %
13.02.2017 08:48 0,9 C 1,7 C 0,0 C 91 % 0 lf 1028,4 hPa 0,0 l/m 0 min 0 min 41 W/m 18,8 km/h (3 Bft) 93,62 %
13.02.2017 08:50 0,9 C 1,7 C 0,0 C 91 % 0 lf 1028,3 hPa 0,0 l/m 0 min 0 min 45 W/m 27,2 km/h (4 Bft) 91,49 %
13.02.2017 08:52 0,9 C 1,7 C 0,0 C 91 % 0 lf 1028,4 hPa 0,0 l/m 0 min 0 min 48 W/m 25,1 km/h (4 Bft) 85,42 %
13.02.2017 08:54 0,9 C 1,7 C 0,0 C 91 % 0 lf 1028,4 hPa 0,0 l/m 0 min 0 min 49 W/m 20,9 km/h (4 Bft) 91,49 %
13.02.2017 08:56 0,9 C 1,7 C 0,0 C 91 % 0 lf 1028,2 hPa 0,0 l/m 0 min 0 min 51 W/m 23,0 km/h (4 Bft) 91,49 %
13.02.2017 08:58 0,9 C 1,7 C 0,0 C 91 % 0 lf 1028,2 hPa 0,0 l/m 0 min 0 min 54 W/m 25,1 km/h (4 Bft) 84,78 %
13.02.2017 09:00 0,9 C 1,7 C 0,6 C 91 % 0 lf 1028,2 hPa 0,0 l/m 0 min 0 min 57 W/m 20,9 km/h (4 Bft) 89,36 %
13.02.2017 09:02 0,9 C 1,7 C 0,6 C 91 % 0 lf 1028,3 hPa 0,0 l/m 0 min 0 min 57 W/m 25,1 km/h (4 Bft) 91,67 %
13.02.2017 09:04 1,0 C 1,7 C 0,6 C 91 % 0 lf 1028,3 hPa 0,0 l/m 0 min 0 min 57 W/m 27,2 km/h (4 Bft) 91,43 %
13.02.2017 09:06 1,0 C 1,7 C 0,6 C 91 % 0 lf 1028,2 hPa 0,0 l/m 0 min 0 min 63 W/m 23,0 km/h (4 Bft) 89,36 %
13.02.2017 09:08 1,0 C 1,7 C 0,6 C 91 % 0 lf 1028,2 hPa 0,0 l/m 0 min 0 min 67 W/m 25,1 km/h (4 Bft) 91,49 %
13.02.2017 09:10 1,0 C 1,7 C 0,6 C 91 % 0 lf 1028,3 hPa 0,0 l/m 0 min 0 min 69 W/m 20,9 km/h (4 Bft) 91,49 %
13.02.2017 09:12 1,0 C 2,2 C 0,6 C 91 % 0 lf 1028,2 hPa 0,0 l/m 0 min 0 min 72 W/m 16,7 km/h (3 Bft) 95,65 %
13.02.2017 09:14 1,1 C 1,7 C 0,6 C 91 % 0 lf 1028,1 hPa 0,0 l/m 0 min 0 min 76 W/m 27,2 km/h (4 Bft) 89,36 %
13.02.2017 09:16 1,1 C 2,2 C 0,6 C 91 % 0 lf 1028,2 hPa 0,0 l/m 0 min 0 min 80 W/m 25,1 km/h (4 Bft) 91,49 %
13.02.2017 09:18 1,1 C 2,2 C 0,6 C 90 % 0 lf 1028,2 hPa 0,0 l/m 0 min 0 min 78 W/m 23,0 km/h (4 Bft) 91,49 %
13.02.2017 09:20 1,1 C 2,2 C 0,6 C 90 % 0 lf 1028,2 hPa 0,0 l/m 0 min 0 min 80 W/m 20,9 km/h (4 Bft) 93,62 %
13.02.2017 09:22 1,1 C 2,2 C 0,6 C 90 % 0 lf 1028,1 hPa 0,0 l/m 0 min 0 min 83 W/m 31,4 km/h (5 Bft) 91,49 %
13.02.2017 09:24 1,1 C 2,2 C 0,6 C 90 % 0 lf 1028,2 hPa 0,0 l/m 0 min 0 min 98 W/m 27,2 km/h (4 Bft) 89,13 %
13.02.2017 09:26 1,2 C 2,2 C 0,6 C 90 % 0 lf 1028,1 hPa 0,0 l/m 2 min 0 min 105 W/m 25,1 km/h (4 Bft) 93,62 %
13.02.2017 09:28 1,2 C 2,2 C 0,6 C 90 % 0 lf 1028,2 hPa 0,0 l/m 0 min 0 min 104 W/m 23,0 km/h (4 Bft) 91,49 %
13.02.2017 09:30 1,2 C 2,2 C 0,6 C 90 % 0 lf 1028,1 hPa 0,0 l/m 0 min 0 min 105 W/m 29,3 km/h (5 Bft) 93,62 %
13.02.2017 09:32 1,2 C 2,2 C 0,6 C 90 % 0 lf 1028,2 hPa 0,0 l/m 0 min 0 min 101 W/m 27,2 km/h (4 Bft) 93,62 %
13.02.2017 09:34 1,3 C 2,2 C 0,6 C 90 % 0 lf 1028,2 hPa 0,0 l/m 0 min 0 min 108 W/m 29,3 km/h (5 Bft) 95,74 %
13.02.2017 09:36 1,3 C 2,8 C 1,1 C 90 % 0 lf 1028,2 hPa 0,0 l/m 2 min 0 min 118 W/m 18,8 km/h (3 Bft) 95,65 %
13.02.2017 09:38 1,3 C 2,8 C 1,1 C 90 % 0 lf 1028,2 hPa 0,0 l/m 2 min 0 min 132 W/m 27,2 km/h (4 Bft) 95,74 %
13.02.2017 09:40 1,3 C 2,8 C 1,1 C 89 % 0 lf 1028,1 hPa 0,0 l/m 2 min 0 min 140 W/m 23,0 km/h (4 Bft) 97,87 %
13.02.2017 09:42 1,4 C 2,8 C 1,1 C 89 % 0 lf 1028,1 hPa 0,0 l/m 2 min 0 min 129 W/m 18,8 km/h (3 Bft) 97,87 %
13.02.2017 09:44 1,4 C 2,8 C 1,1 C 89 % 0 lf 1028,1 hPa 0,0 l/m 2 min 0 min 134 W/m 29,3 km/h (5 Bft) 100,00 %
13.02.2017 09:46 1,4 C 3,9 C 1,1 C 89 % 0 lf 1028,1 hPa 0,0 l/m 2 min 0 min 175 W/m 27,2 km/h (4 Bft) 100,00 %
13.02.2017 09:48 1,4 C 3,9 C 1,1 C 89 % 0 lf 1028,1 hPa 0,0 l/m 2 min 0 min 200 W/m 25,1 km/h (4 Bft) 100,00 %
13.02.2017 09:50 1,5 C 3,9 C 1,1 C 89 % 0 lf 1028,1 hPa 0,0 l/m 2 min 0 min 189 W/m 25,1 km/h (4 Bft) 100,00 %
13.02.2017 09:52 1,6 C 4,4 C 1,1 C 89 % 0 lf 1028,0 hPa 0,0 l/m 2 min 0 min 192 W/m 20,9 km/h (4 Bft) 95,74 %
13.02.2017 09:54 1,6 C 4,4 C 1,1 C 89 % 0 lf 1027,9 hPa 0,0 l/m 2 min 0 min 200 W/m 23,0 km/h (4 Bft) 95,74 %
13.02.2017 09:56 1,7 C 4,4 C 1,1 C 89 % 0 lf 1027,9 hPa 0,0 l/m 2 min 0 min 196 W/m 23,0 km/h (4 Bft) 100,00 %
13.02.2017 09:58 1,7 C 5,0 C 1,1 C 89 % 0 lf 1027,9 hPa 0,0 l/m 2 min 0 min 198 W/m 29,3 km/h (5 Bft) 100,00 %
13.02.2017 10:00 1,8 C 5,0 C 1,1 C 89 % 0 lf 1027,9 hPa 0,0 l/m 2 min 0 min 219 W/m 25,1 km/h (4 Bft) 95,74 %
13.02.2017 10:02 1,8 C 4,4 C 1,1 C 89 % 0 lf 1027,9 hPa 0,0 l/m 2 min 0 min 206 W/m 25,1 km/h (4 Bft) 96,23 %
13.02.2017 10:04 1,9 C 5,6 C 1,1 C 88 % 0 lf 1028,0 hPa 0,0 l/m 2 min 0 min 222 W/m 23,0 km/h (4 Bft) 97,87 %
13.02.2017 10:06 1,9 C 5,6 C 1,1 C 88 % 0 lf 1028,1 hPa 0,0 l/m 2 min 0 min 221 W/m 27,2 km/h (4 Bft) 98,00 %
13.02.2017 10:08 2,0 C 5,0 C 1,1 C 88 % 0 lf 1028,1 hPa 0,0 l/m 2 min 0 min 221 W/m 31,4 km/h (5 Bft) 97,83 %
13.02.2017 10:10 2,1 C 4,4 C 1,1 C 88 % 0 lf 1028,0 hPa 0,0 l/m 2 min 0 min 201 W/m 33,5 km/h (5 Bft) 100,00 %
13.02.2017 10:12 2,1 C 5,0 C 1,1 C 87 % 0 lf 1028,0 hPa 0,0 l/m 2 min 0 min 231 W/m 23,0 km/h (4 Bft) 97,87 %
13.02.2017 10:14 2,2 C 5,0 C 1,1 C 87 % 0 lf 1028,0 hPa 0,0 l/m 2 min 0 min 232 W/m 25,1 km/h (4 Bft) 100,00 %
13.02.2017 10:16 2,2 C 5,6 C 1,7 C 87 % 0 lf 1028,1 hPa 0,0 l/m 2 min 0 min 236 W/m 25,1 km/h (4 Bft) 100,00 %
13.02.2017 10:18 2,3 C 5,6 C 1,7 C 87 % 0 lf 1028,0 hPa 0,0 l/m 2 min 0 min 240 W/m 27,2 km/h (4 Bft) 100,00 %
13.02.2017 10:20 2,3 C 5,6 C 1,7 C 87 % 0 lf 1028,1 hPa 0,0 l/m 2 min 0 min 254 W/m 27,2 km/h (4 Bft) 100,00 %
13.02.2017 10:22 2,4 C 6,1 C 1,7 C 87 % 0 lf 1028,0 hPa 0,0 l/m 2 min 0 min 249 W/m 35,6 km/h (5 Bft) 100,00 %
13.02.2017 10:24 2,4 C 5,6 C 1,7 C 86 % 0 lf 1028,0 hPa 0,0 l/m 2 min 0 min 265 W/m 35,6 km/h (5 Bft) 93,62 %
13.02.2017 10:26 2,5 C 6,1 C 1,7 C 86 % 0 lf 1027,9 hPa 0,0 l/m 2 min 0 min 269 W/m 27,2 km/h (4 Bft) 97,87 %
13.02.2017 10:28 2,6 C 6,7 C 1,7 C 86 % 0 lf 1028,0 hPa 0,0 l/m 2 min 0 min 276 W/m 25,1 km/h (4 Bft) 97,87 %
13.02.2017 10:30 2,6 C 6,7 C 1,7 C 86 % 0 lf 1028,1 hPa 0,0 l/m 2 min 0 min 278 W/m 23,0 km/h (4 Bft) 97,87 %
13.02.2017 10:32 2,7 C 6,7 C 1,7 C 86 % 0 lf 1028,1 hPa 0,0 l/m 2 min 0 min 274 W/m 29,3 km/h (5 Bft) 100,00 %
13.02.2017 10:34 2,8 C 7,2 C 1,7 C 85 % 0 lf 1028,1 hPa 0,0 l/m 2 min 0 min 282 W/m 31,4 km/h (5 Bft) 97,87 %
13.02.2017 10:36 2,8 C 7,2 C 2,2 C 85 % 0 lf 1028,0 hPa 0,0 l/m 2 min 0 min 293 W/m 27,2 km/h (4 Bft) 100,00 %
13.02.2017 10:38 2,9 C 6,7 C 2,2 C 85 % 0 lf 1028,1 hPa 0,0 l/m 2 min 0 min 299 W/m 29,3 km/h (5 Bft) 97,87 %
13.02.2017 10:40 2,9 C 6,1 C 2,2 C 85 % 0 lf 1028,1 hPa 0,0 l/m 2 min 0 min 301 W/m 33,5 km/h (5 Bft) 97,87 %
13.02.2017 10:42 3,1 C 6,1 C 1,7 C 84 % 0 lf 1028,1 hPa 0,0 l/m 2 min 0 min 296 W/m 33,5 km/h (5 Bft) 95,65 %
13.02.2017 10:44 3,1 C 6,7 C 2,2 C 84 % 0 lf 1028,0 hPa 0,0 l/m 2 min 0 min 306 W/m 27,2 km/h (4 Bft) 100,00 %
13.02.2017 10:46 3,2 C 6,7 C 2,2 C 84 % 0 lf 1028,0 hPa 0,0 l/m 2 min 0 min 312 W/m 31,4 km/h (5 Bft) 97,87 %
13.02.2017 10:48 3,2 C 6,7 C 2,2 C 83 % 0 lf 1027,9 hPa 0,0 l/m 2 min 0 min 316 W/m 35,6 km/h (5 Bft) 100,00 %
13.02.2017 10:50 3,2 C 7,8 C 2,2 C 83 % 0 lf 1027,8 hPa 0,0 l/m 2 min 0 min 321 W/m 25,1 km/h (4 Bft) 100,00 %
13.02.2017 10:52 3,3 C 7,8 C 2,2 C 83 % 0 lf 1027,8 hPa 0,0 l/m 2 min 0 min 325 W/m 16,7 km/h (3 Bft) 100,00 %
13.02.2017 10:54 3,4 C 8,9 C 2,2 C 83 % 0 lf 1027,9 hPa 0,0 l/m 2 min 0 min 323 W/m 23,0 km/h (4 Bft) 100,00 %
13.02.2017 10:56 3,4 C 7,2 C 2,2 C 83 % 0 lf 1027,9 hPa 0,0 l/m 2 min 0 min 323 W/m 37,7 km/h (5 Bft) 100,00 %
13.02.2017 10:58 3,5 C 7,8 C 2,2 C 82 % 0 lf 1028,0 hPa 0,0 l/m 2 min 0 min 322 W/m 23,0 km/h (4 Bft) 97,87 %
13.02.2017 11:00 3,6 C 8,3 C 2,2 C 82 % 0 lf 1028,0 hPa 0,0 l/m 2 min 0 min 325 W/m 23,0 km/h (4 Bft) 97,87 %
13.02.2017 11:02 3,6 C 7,2 C 2,2 C 82 % 0 lf 1028,1 hPa 0,0 l/m 2 min 0 min 330 W/m 37,7 km/h (5 Bft) 97,96 %
13.02.2017 11:04 3,7 C 7,8 C 2,2 C 81 % 0 lf 1028,1 hPa 0,0 l/m 2 min 0 min 338 W/m 23,0 km/h (4 Bft) 97,87 %
13.02.2017 11:06 3,7 C 7,2 C 2,2 C 81 % 0 lf 1028,1 hPa 0,0 l/m 2 min 0 min 339 W/m 33,5 km/h (5 Bft) 97,14 %
13.02.2017 11:08 3,8 C 7,8 C 2,8 C 81 % 0 lf 1028,1 hPa 0,0 l/m 2 min 0 min 345 W/m 35,6 km/h (5 Bft) 100,00 %
13.02.2017 11:10 3,8 C 7,2 C 2,8 C 81 % 0 lf 1028,0 hPa 0,0 l/m 2 min 0 min 346 W/m 33,5 km/h (5 Bft) 97,87 %
13.02.2017 11:12 3,8 C 8,3 C 2,8 C 81 % 0 lf 1028,1 hPa 0,0 l/m 2 min 0 min 352 W/m 25,1 km/h (4 Bft) 97,87 %
13.02.2017 11:14 3,9 C 8,9 C 2,8 C 81 % 0 lf 1028,1 hPa 0,0 l/m 2 min 0 min 357 W/m 31,4 km/h (5 Bft) 93,62 %
13.02.2017 11:16 4,0 C 8,3 C 2,8 C 80 % 0 lf 1028,0 hPa 0,0 l/m 2 min 0 min 359 W/m 35,6 km/h (5 Bft) 95,74 %
13.02.2017 11:18 4,1 C 8,9 C 2,8 C 80 % 0 lf 1028,1 hPa 0,0 l/m 2 min 0 min 359 W/m 35,6 km/h (5 Bft) 93,62 %
13.02.2017 11:20 4,1 C 8,3 C 2,8 C 80 % 0 lf 1028,1 hPa 0,0 l/m 2 min 0 min 361 W/m 37,7 km/h (5 Bft) 95,65 %
13.02.2017 11:22 4,1 C 8,3 C 2,8 C 80 % 0 lf 1028,0 hPa 0,0 l/m 2 min 0 min 363 W/m 35,6 km/h (5 Bft) 93,62 %
13.02.2017 11:24 4,2 C 10,0 C 2,8 C 80 % 0 lf 1028,1 hPa 0,0 l/m 2 min 0 min 369 W/m 31,4 km/h (5 Bft) 93,62 %
13.02.2017 11:26 4,2 C 10,0 C 2,8 C 80 % 0 lf 1028,1 hPa 0,0 l/m 2 min 0 min 372 W/m 27,2 km/h (4 Bft) 91,49 %
13.02.2017 11:28 4,3 C 9,4 C 3,3 C 80 % 0 lf 1028,2 hPa 0,0 l/m 2 min 0 min 373 W/m 27,2 km/h (4 Bft) 95,74 %
13.02.2017 11:30 4,4 C 9,4 C 3,3 C 79 % 0 lf 1028,2 hPa 0,0 l/m 2 min 0 min 374 W/m 37,7 km/h (5 Bft) 95,74 %
13.02.2017 11:32 4,4 C 9,4 C 3,3 C 79 % 0 lf 1028,1 hPa 0,0 l/m 2 min 0 min 370 W/m 20,9 km/h (4 Bft) 93,48 %
13.02.2017 11:34 4,6 C 9,4 C 3,3 C 79 % 0 lf 1028,1 hPa 0,0 l/m 2 min 0 min 370 W/m 25,1 km/h (4 Bft) 91,49 %
13.02.2017 11:36 4,7 C 9,4 C 3,3 C 79 % 0 lf 1028,2 hPa 0,0 l/m 2 min 0 min 376 W/m 33,5 km/h (5 Bft) 95,74 %
13.02.2017 11:38 4,7 C 9,4 C 3,3 C 79 % 0 lf 1028,2 hPa 0,0 l/m 2 min 0 min 375 W/m 20,9 km/h (4 Bft) 91,49 %
13.02.2017 11:40 4,8 C 10,0 C 3,3 C 78 % 0 lf 1028,1 hPa 0,0 l/m 2 min 0 min 379 W/m 27,2 km/h (4 Bft) 93,62 %
13.02.2017 11:42 4,8 C 9,4 C 3,3 C 78 % 0 lf 1028,1 hPa 0,0 l/m 2 min 0 min 399 W/m 35,6 km/h (5 Bft) 94,34 %
13.02.2017 11:44 4,9 C 10,0 C 3,3 C 78 % 0 lf 1028,2 hPa 0,0 l/m 2 min 0 min 402 W/m 35,6 km/h (5 Bft) 85,11 %
13.02.2017 11:46 4,9 C 9,4 C 3,9 C 77 % 0 lf 1028,1 hPa 0,0 l/m 2 min 0 min 403 W/m 33,5 km/h (5 Bft) 91,49 %
13.02.2017 11:48 5,0 C 10,0 C 3,9 C 77 % 0 lf 1028,0 hPa 0,0 l/m 2 min 0 min 406 W/m 20,9 km/h (4 Bft) 89,36 %
13.02.2017 11:50 5,1 C 9,4 C 3,9 C 77 % 0 lf 1028,0 hPa 0,0 l/m 2 min 0 min 405 W/m 35,6 km/h (5 Bft) 87,23 %
13.02.2017 11:52 5,1 C 10,0 C 4,4 C 77 % 0 lf 1027,9 hPa 0,0 l/m 2 min 0 min 407 W/m 27,2 km/h (4 Bft) 91,67 %
13.02.2017 11:54 5,1 C 9,4 C 4,4 C 77 % 0 lf 1027,9 hPa 0,0 l/m 2 min 0 min 412 W/m 29,3 km/h (5 Bft) 91,30 %
13.02.2017 11:56 5,2 C 9,4 C 4,4 C 76 % 0 lf 1027,9 hPa 0,0 l/m 2 min 0 min 418 W/m 31,4 km/h (5 Bft) 87,23 %
13.02.2017 11:58 5,2 C 10,0 C 4,4 C 76 % 0 lf 1027,9 hPa 0,0 l/m 2 min 0 min 423 W/m 29,3 km/h (5 Bft) 91,49 %
13.02.2017 12:00 5,3 C 10,6 C 4,4 C 76 % 0 lf 1027,9 hPa 0,0 l/m 2 min 0 min 425 W/m 31,4 km/h (5 Bft) 91,49 %
13.02.2017 12:02 5,3 C 11,1 C 4,4 C 77 % 0 lf 1027,9 hPa 0,0 l/m 2 min 0 min 424 W/m 20,9 km/h (4 Bft) 92,00 %
13.02.2017 12:04 5,4 C 11,1 C 4,4 C 76 % 0 lf 1027,8 hPa 0,0 l/m 2 min 0 min 438 W/m 18,8 km/h (3 Bft) 93,62 %
13.02.2017 12:06 5,5 C 11,1 C 5,0 C 77 % 0 lf 1027,9 hPa 0,0 l/m 2 min 0 min 448 W/m 18,8 km/h (3 Bft) 91,49 %
13.02.2017 12:08 5,6 C 11,7 C 5,0 C 76 % 0 lf 1027,9 hPa 0,0 l/m 2 min 0 min 447 W/m 20,9 km/h (4 Bft) 91,30 %
13.02.2017 12:10 5,7 C 12,2 C 5,0 C 76 % 0 lf 1027,9 hPa 0,0 l/m 2 min 0 min 434 W/m 18,8 km/h (3 Bft) 91,49 %
13.02.2017 12:12 5,8 C 12,2 C 5,0 C 76 % 0 lf 1027,8 hPa 0,0 l/m 2 min 0 min 431 W/m 20,9 km/h (4 Bft) 89,36 %
13.02.2017 12:14 5,9 C 11,7 C 5,0 C 76 % 0 lf 1027,8 hPa 0,0 l/m 2 min 0 min 429 W/m 27,2 km/h (4 Bft) 97,14 %
13.02.2017 12:16 6,0 C 12,2 C 5,0 C 76 % 0 lf 1027,6 hPa 0,0 l/m 2 min 0 min 426 W/m 23,0 km/h (4 Bft) 93,10 %
13.02.2017 12:18 6,1 C 11,7 C 5,0 C 75 % 0 lf 1027,7 hPa 0,0 l/m 2 min 0 min 426 W/m 23,0 km/h (4 Bft) 94,29 %
13.02.2017 12:20 6,2 C 11,1 C 5,0 C 75 % 0 lf 1027,6 hPa 0,0 l/m 2 min 0 min 429 W/m 25,1 km/h (4 Bft) 93,22 %
13.02.2017 12:22 6,3 C 11,7 C 5,0 C 74 % 0 lf 1027,7 hPa 0,0 l/m 2 min 0 min 432 W/m 23,0 km/h (4 Bft) 95,74 %
13.02.2017 12:24 6,3 C 11,7 C 5,0 C 74 % 0 lf 1027,7 hPa 0,0 l/m 2 min 0 min 432 W/m 35,6 km/h (5 Bft) 91,49 %
13.02.2017 12:26 6,4 C 10,6 C 5,0 C 74 % 0 lf 1027,6 hPa 0,0 l/m 2 min 0 min 432 W/m 27,2 km/h (4 Bft) 95,65 %
13.02.2017 12:28 6,4 C 11,1 C 5,0 C 73 % 0 lf 1027,6 hPa 0,0 l/m 2 min 0 min 432 W/m 31,4 km/h (5 Bft) 93,62 %
13.02.2017 12:30 6,4 C 11,7 C 5,0 C 73 % 0 lf 1027,6 hPa 0,0 l/m 2 min 0 min 436 W/m 43,9 km/h (6 Bft) 95,74 %
13.02.2017 12:32 6,4 C 11,1 C 5,0 C 73 % 0 lf 1027,5 hPa 0,0 l/m 2 min 0 min 433 W/m 48,1 km/h (6 Bft) 93,62 %
13.02.2017 12:34 6,4 C 10,6 C 5,0 C 73 % 0 lf 1027,4 hPa 0,0 l/m 2 min 0 min 434 W/m 31,4 km/h (5 Bft) 97,87 %
13.02.2017 12:36 6,5 C 10,6 C 5,0 C 73 % 0 lf 1027,4 hPa 0,0 l/m 2 min 0 min 434 W/m 29,3 km/h (5 Bft) 94,29 %
13.02.2017 12:38 6,5 C 10,6 C 5,0 C 72 % 0 lf 1027,4 hPa 0,0 l/m 2 min 0 min 431 W/m 25,1 km/h (4 Bft) 97,87 %
13.02.2017 12:40 6,6 C 10,6 C 5,0 C 73 % 0 lf 1027,4 hPa 0,0 l/m 2 min 0 min 437 W/m 37,7 km/h (5 Bft) 100,00 %
13.02.2017 12:42 6,6 C 10,0 C 5,0 C 72 % 0 lf 1027,4 hPa 0,0 l/m 2 min 0 min 438 W/m 27,2 km/h (4 Bft) 98,08 %
13.02.2017 12:44 6,7 C 10,6 C 5,6 C 72 % 0 lf 1027,5 hPa 0,0 l/m 2 min 0 min 435 W/m 29,3 km/h (5 Bft) 100,00 %
13.02.2017 12:46 6,7 C 11,7 C 5,6 C 72 % 0 lf 1027,4 hPa 0,0 l/m 2 min 0 min 436 W/m 33,5 km/h (5 Bft) 100,00 %
13.02.2017 12:48 6,7 C 11,7 C 5,6 C 72 % 0 lf 1027,4 hPa 0,0 l/m 2 min 0 min 437 W/m 23,0 km/h (4 Bft) 98,11 %
13.02.2017 12:50 6,7 C 11,1 C 5,6 C 72 % 0 lf 1027,4 hPa 0,0 l/m 2 min 0 min 435 W/m 25,1 km/h (4 Bft) 97,87 %
13.02.2017 12:52 6,8 C 11,1 C 5,6 C 72 % 0 lf 1027,5 hPa 0,0 l/m 2 min 0 min 438 W/m 25,1 km/h (4 Bft) 97,83 %
13.02.2017 12:54 6,8 C 12,2 C 5,6 C 72 % 0 lf 1027,4 hPa 0,0 l/m 2 min 0 min 440 W/m 27,2 km/h (4 Bft) 97,87 %
13.02.2017 12:56 6,9 C 12,2 C 5,6 C 72 % 0 lf 1027,5 hPa 0,0 l/m 2 min 0 min 436 W/m 27,2 km/h (4 Bft) 100,00 %
13.02.2017 12:58 6,9 C 13,3 C 5,6 C 72 % 0 lf 1027,5 hPa 0,0 l/m 2 min 0 min 437 W/m 29,3 km/h (5 Bft) 97,87 %
13.02.2017 13:00 7,0 C 12,2 C 5,6 C 72 % 0 lf 1027,5 hPa 0,0 l/m 2 min 0 min 438 W/m 31,4 km/h (5 Bft) 100,00 %
13.02.2017 13:02 7,1 C 12,2 C 5,6 C 72 % 0 lf 1027,5 hPa 0,0 l/m 2 min 0 min 442 W/m 20,9 km/h (4 Bft) 97,87 %
13.02.2017 13:04 7,2 C 11,1 C 5,6 C 71 % 0 lf 1027,5 hPa 0,0 l/m 2 min 0 min 438 W/m 29,3 km/h (5 Bft) 100,00 %
13.02.2017 13:06 7,2 C 11,7 C 5,6 C 71 % 0 lf 1027,5 hPa 0,0 l/m 2 min 0 min 438 W/m 25,1 km/h (4 Bft) 98,00 %
13.02.2017 13:08 7,3 C 12,2 C 6,1 C 71 % 0 lf 1027,5 hPa 0,0 l/m 2 min 0 min 440 W/m 29,3 km/h (5 Bft) 97,87 %
13.02.2017 13:10 7,3 C 12,2 C 5,6 C 70 % 0 lf 1027,5 hPa 0,0 l/m 2 min 0 min 435 W/m 29,3 km/h (5 Bft) 100,00 %
13.02.2017 13:12 7,3 C 12,2 C 6,1 C 70 % 0 lf 1027,5 hPa 0,0 l/m 2 min 0 min 436 W/m 35,6 km/h (5 Bft) 100,00 %
13.02.2017 13:14 7,4 C 12,8 C 6,1 C 71 % 0 lf 1027,4 hPa 0,0 l/m 2 min 0 min 433 W/m 33,5 km/h (5 Bft) 97,83 %
13.02.2017 13:16 7,4 C 12,8 C 6,1 C 70 % 0 lf 1027,5 hPa 0,0 l/m 2 min 0 min 432 W/m 29,3 km/h (5 Bft) 100,00 %
13.02.2017 13:18 7,6 C 12,8 C 6,1 C 70 % 0 lf 1027,4 hPa 0,0 l/m 2 min 0 min 432 W/m 35,6 km/h (5 Bft) 97,87 %
13.02.2017 13:20 7,6 C 12,8 C 6,1 C 70 % 0 lf 1027,4 hPa 0,0 l/m 2 min 0 min 428 W/m 29,3 km/h (5 Bft) 100,00 %
13.02.2017 13:22 7,7 C 12,2 C 6,1 C 69 % 0 lf 1027,4 hPa 0,0 l/m 2 min 0 min 428 W/m 33,5 km/h (5 Bft) 100,00 %
13.02.2017 13:24 7,7 C 13,3 C 6,1 C 69 % 0 lf 1027,3 hPa 0,0 l/m 2 min 0 min 429 W/m 27,2 km/h (4 Bft) 100,00 %
13.02.2017 13:26 7,8 C 13,9 C 6,7 C 70 % 0 lf 1027,4 hPa 0,0 l/m 2 min 0 min 428 W/m 25,1 km/h (4 Bft) 100,00 %
13.02.2017 13:28 7,9 C 13,9 C 6,7 C 70 % 0 lf 1027,4 hPa 0,0 l/m 2 min 0 min 425 W/m 20,9 km/h (4 Bft) 97,87 %
13.02.2017 13:30 7,9 C 13,3 C 6,7 C 69 % 0 lf 1027,4 hPa 0,0 l/m 2 min 0 min 425 W/m 27,2 km/h (4 Bft) 97,87 %
13.02.2017 13:32 8,1 C 12,8 C 6,7 C 69 % 0 lf 1027,3 hPa 0,0 l/m 2 min 0 min 423 W/m 23,0 km/h (4 Bft) 95,74 %
13.02.2017 13:34 8,1 C 12,2 C 6,7 C 69 % 0 lf 1027,2 hPa 0,0 l/m 2 min 0 min 421 W/m 31,4 km/h (5 Bft) 97,87 %
13.02.2017 13:36 8,1 C 12,8 C 6,7 C 68 % 0 lf 1027,2 hPa 0,0 l/m 2 min 0 min 419 W/m 29,3 km/h (5 Bft) 100,00 %
13.02.2017 13:38 8,2 C 12,8 C 6,7 C 68 % 0 lf 1027,1 hPa 0,0 l/m 2 min 0 min 418 W/m 33,5 km/h (5 Bft) 97,83 %
13.02.2017 13:40 8,2 C 12,8 C 6,7 C 68 % 0 lf 1027,1 hPa 0,0 l/m 2 min 0 min 417 W/m 27,2 km/h (4 Bft) 93,62 %
13.02.2017 13:42 8,3 C 14,4 C 6,7 C 68 % 0 lf 1027,1 hPa 0,0 l/m 2 min 0 min 416 W/m 33,5 km/h (5 Bft) 95,83 %
13.02.2017 13:44 8,3 C 14,4 C 6,7 C 68 % 0 lf 1027,1 hPa 0,0 l/m 2 min 0 min 418 W/m 31,4 km/h (5 Bft) 93,62 %
13.02.2017 13:46 8,4 C 13,9 C 6,7 C 68 % 0 lf 1027,1 hPa 0,0 l/m 2 min 0 min 414 W/m 25,1 km/h (4 Bft) 95,74 %
13.02.2017 13:48 8,4 C 13,3 C 6,7 C 67 % 0 lf 1027,2 hPa 0,0 l/m 2 min 0 min 411 W/m 31,4 km/h (5 Bft) 97,87 %
13.02.2017 13:50 8,4 C 12,8 C 6,7 C 67 % 0 lf 1027,2 hPa 0,0 l/m 2 min 0 min 408 W/m 33,5 km/h (5 Bft) 95,65 %
13.02.2017 13:52 8,5 C 12,8 C 6,7 C 67 % 0 lf 1027,1 hPa 0,0 l/m 2 min 0 min 405 W/m 25,1 km/h (4 Bft) 95,74 %
13.02.2017 13:54 8,6 C 12,8 C 6,7 C 67 % 0 lf 1027,1 hPa 0,0 l/m 2 min 0 min 406 W/m 27,2 km/h (4 Bft) 95,74 %
13.02.2017 13:56 8,6 C 13,9 C 7,2 C 67 % 0 lf 1027,2 hPa 0,0 l/m 2 min 0 min 403 W/m 25,1 km/h (4 Bft) 95,74 %
13.02.2017 13:58 8,7 C 14,4 C 7,2 C 67 % 0 lf 1027,1 hPa 0,0 l/m 2 min 0 min 400 W/m 23,0 km/h (4 Bft) 95,74 %
13.02.2017 14:00 8,7 C 15,0 C 7,2 C 67 % 0 lf 1027,2 hPa 0,0 l/m 2 min 0 min 398 W/m 16,7 km/h (3 Bft) 91,49 %
13.02.2017 14:02 8,8 C 14,4 C 7,2 C 67 % 0 lf 1027,2 hPa 0,0 l/m 2 min 0 min 397 W/m 20,9 km/h (4 Bft) 91,67 %
13.02.2017 14:04 8,8 C 14,4 C 7,2 C 67 % 0 lf 1027,1 hPa 0,0 l/m 2 min 0 min 395 W/m 20,9 km/h (4 Bft) 93,62 %
13.02.2017 14:06 8,9 C 14,4 C 7,2 C 67 % 0 lf 1027,2 hPa 0,0 l/m 2 min 0 min 391 W/m 25,1 km/h (4 Bft) 94,29 %
13.02.2017 14:08 8,9 C 14,4 C 7,2 C 66 % 0 lf 1027,1 hPa 0,0 l/m 2 min 0 min 388 W/m 31,4 km/h (5 Bft) 93,62 %
13.02.2017 14:10 9,0 C 14,4 C 7,2 C 66 % 0 lf 1027,1 hPa 0,0 l/m 2 min 0 min 386 W/m 25,1 km/h (4 Bft) 95,74 %
13.02.2017 14:12 9,1 C 15,0 C 7,2 C 66 % 0 lf 1027,0 hPa 0,0 l/m 2 min 0 min 385 W/m 27,2 km/h (4 Bft) 97,87 %
13.02.2017 14:14 9,1 C 15,6 C 7,2 C 66 % 0 lf 1027,0 hPa 0,0 l/m 2 min 0 min 381 W/m 20,9 km/h (4 Bft) 95,74 %
13.02.2017 14:16 9,2 C 14,4 C 7,8 C 66 % 0 lf 1026,9 hPa 0,0 l/m 2 min 0 min 379 W/m 20,9 km/h (4 Bft) 95,65 %
13.02.2017 14:18 9,3 C 13,9 C 7,8 C 65 % 0 lf 1027,1 hPa 0,0 l/m 2 min 0 min 374 W/m 35,6 km/h (5 Bft) 93,62 %
13.02.2017 14:20 9,3 C 13,3 C 7,8 C 65 % 0 lf 1027,0 hPa 0,0 l/m 2 min 0 min 370 W/m 25,1 km/h (4 Bft) 97,87 %
13.02.2017 14:22 9,3 C 14,4 C 7,8 C 65 % 0 lf 1027,0 hPa 0,0 l/m 2 min 0 min 369 W/m 25,1 km/h (4 Bft) 95,74 %
13.02.2017 14:24 9,4 C 14,4 C 7,8 C 65 % 0 lf 1027,0 hPa 0,0 l/m 2 min 0 min 367 W/m 16,7 km/h (3 Bft) 97,87 %
13.02.2017 14:26 9,4 C 15,0 C 7,8 C 65 % 0 lf 1027,0 hPa 0,0 l/m 2 min 0 min 364 W/m 29,3 km/h (5 Bft) 93,62 %
13.02.2017 14:28 9,5 C 14,4 C 7,8 C 64 % 0 lf 1027,0 hPa 0,0 l/m 2 min 0 min 361 W/m 31,4 km/h (5 Bft) 97,83 %
13.02.2017 14:30 9,6 C 13,9 C 7,8 C 64 % 0 lf 1026,9 hPa 0,0 l/m 2 min 0 min 360 W/m 25,1 km/h (4 Bft) 97,87 %
13.02.2017 14:32 9,6 C 13,9 C 7,8 C 63 % 0 lf 1026,9 hPa 0,0 l/m 2 min 0 min 358 W/m 31,4 km/h (5 Bft) 98,15 %
13.02.2017 14:34 9,6 C 15,0 C 7,8 C 63 % 0 lf 1026,8 hPa 0,0 l/m 2 min 0 min 356 W/m 23,0 km/h (4 Bft) 97,87 %
13.02.2017 14:36 9,7 C 14,4 C 7,8 C 63 % 0 lf 1026,9 hPa 0,0 l/m 2 min 0 min 352 W/m 20,9 km/h (4 Bft) 97,87 %
13.02.2017 14:38 9,7 C 15,6 C 8,3 C 63 % 0 lf 1026,8 hPa 0,0 l/m 2 min 0 min 349 W/m 23,0 km/h (4 Bft) 97,83 %
13.02.2017 14:40 9,8 C 15,0 C 8,3 C 63 % 0 lf 1026,7 hPa 0,0 l/m 2 min 0 min 346 W/m 29,3 km/h (5 Bft) 100,00 %
13.02.2017 14:42 9,8 C 14,4 C 8,3 C 63 % 0 lf 1026,7 hPa 0,0 l/m 2 min 0 min 343 W/m 25,1 km/h (4 Bft) 91,49 %
13.02.2017 14:44 9,8 C 14,4 C 9,4 C 62 % 0 lf 1026,7 hPa 0,0 l/m 2 min 0 min 340 W/m 35,6 km/h (5 Bft) 95,74 %
13.02.2017 14:46 9,9 C 14,4 C 9,4 C 62 % 0 lf 1026,7 hPa 0,0 l/m 2 min 0 min 338 W/m 31,4 km/h (5 Bft) 100,00 %
13.02.2017 14:48 9,9 C 15,0 C 9,4 C 62 % 0 lf 1026,6 hPa 0,0 l/m 2 min 0 min 334 W/m 29,3 km/h (5 Bft) 95,74 %
13.02.2017 14:50 10,0 C 15,0 C 9,4 C 62 % 0 lf 1026,7 hPa 0,0 l/m 2 min 0 min 330 W/m 23,0 km/h (4 Bft) 100,00 %
13.02.2017 14:52 10,0 C 15,6 C 9,4 C 62 % 0 lf 1026,6 hPa 0,0 l/m 2 min 0 min 358 W/m 25,1 km/h (4 Bft) 97,87 %
13.02.2017 14:54 10,1 C 14,4 C 10,6 C 62 % 0 lf 1026,7 hPa 0,0 l/m 2 min 0 min 332 W/m 20,9 km/h (4 Bft) 97,87 %
13.02.2017 14:56 10,1 C 15,0 C 11,1 C 62 % 0 lf 1026,7 hPa 0,0 l/m 2 min 0 min 318 W/m 23,0 km/h (4 Bft) 97,87 %
13.02.2017 14:58 10,2 C 14,4 C 11,1 C 62 % 0 lf 1026,5 hPa 0,0 l/m 2 min 0 min 316 W/m 29,3 km/h (5 Bft) 97,87 %
13.02.2017 15:00 10,2 C 14,4 C 10,6 C 62 % 0 lf 1026,6 hPa 0,0 l/m 2 min 0 min 312 W/m 18,8 km/h (3 Bft) 100,00 %
13.02.2017 15:02 10,2 C 15,0 C 10,0 C 62 % 0 lf 1026,5 hPa 0,0 l/m 2 min 0 min 307 W/m 16,7 km/h (3 Bft) 100,00 %
13.02.2017 15:04 10,3 C 15,0 C 10,0 C 62 % 0 lf 1026,5 hPa 0,0 l/m 2 min 0 min 303 W/m 23,0 km/h (4 Bft) 100,00 %
13.02.2017 15:06 10,3 C 15,6 C 9,4 C 62 % 0 lf 1026,5 hPa 0,0 l/m 2 min 0 min 299 W/m 29,3 km/h (5 Bft) 100,00 %
13.02.2017 15:08 10,4 C 15,0 C 8,9 C 62 % 0 lf 1026,5 hPa 0,0 l/m 2 min 0 min 293 W/m 25,1 km/h (4 Bft) 97,87 %
13.02.2017 15:10 10,4 C 15,6 C 8,9 C 62 % 0 lf 1026,5 hPa 0,0 l/m 2 min 0 min 288 W/m 18,8 km/h (3 Bft) 97,87 %
13.02.2017 15:12 10,4 C 14,4 C 8,9 C 61 % 0 lf 1026,5 hPa 0,0 l/m 2 min 0 min 287 W/m 31,4 km/h (5 Bft) 100,00 %
13.02.2017 15:14 10,5 C 15,6 C 8,9 C 61 % 0 lf 1026,5 hPa 0,0 l/m 2 min 0 min 281 W/m 20,9 km/h (4 Bft) 95,74 %
13.02.2017 15:16 10,6 C 15,0 C 8,9 C 61 % 0 lf 1026,5 hPa 0,0 l/m 2 min 0 min 277 W/m 25,1 km/h (4 Bft) 97,87 %
13.02.2017 15:18 10,6 C 15,6 C 8,9 C 61 % 0 lf 1026,5 hPa 0,0 l/m 2 min 0 min 272 W/m 20,9 km/h (4 Bft) 97,87 %
13.02.2017 15:20 10,7 C 16,1 C 8,9 C 61 % 0 lf 1026,4 hPa 0,0 l/m 2 min 0 min 268 W/m 16,7 km/h (3 Bft) 100,00 %
13.02.2017 15:22 10,7 C 15,0 C 8,9 C 60 % 0 lf 1026,4 hPa 0,0 l/m 2 min 0 min 262 W/m 27,2 km/h (4 Bft) 97,92 %
13.02.2017 15:24 10,8 C 14,4 C 8,9 C 59 % 0 lf 1026,4 hPa 0,0 l/m 2 min 0 min 257 W/m 29,3 km/h (5 Bft) 95,65 %
13.02.2017 15:26 10,8 C 14,4 C 8,9 C 59 % 0 lf 1026,3 hPa 0,0 l/m 2 min 0 min 254 W/m 31,4 km/h (5 Bft) 97,87 %
13.02.2017 15:28 10,8 C 14,4 C 8,9 C 58 % 0 lf 1026,3 hPa 0,0 l/m 2 min 0 min 250 W/m 23,0 km/h (4 Bft) 100,00 %
13.02.2017 15:30 10,8 C 15,0 C 8,9 C 59 % 0 lf 1026,3 hPa 0,0 l/m 2 min 0 min 245 W/m 25,1 km/h (4 Bft) 95,74 %
13.02.2017 15:32 10,8 C 15,0 C 8,9 C 59 % 0 lf 1026,3 hPa 0,0 l/m 2 min 0 min 241 W/m 29,3 km/h (5 Bft) 97,87 %
13.02.2017 15:34 10,8 C 15,0 C 8,9 C 59 % 0 lf 1026,3 hPa 0,0 l/m 2 min 0 min 236 W/m 31,4 km/h (5 Bft) 97,87 %
13.02.2017 15:36 10,8 C 15,0 C 8,9 C 58 % 0 lf 1026,4 hPa 0,0 l/m 2 min 0 min 231 W/m 27,2 km/h (4 Bft) 97,83 %
13.02.2017 15:38 10,9 C 15,0 C 8,9 C 58 % 0 lf 1026,3 hPa 0,0 l/m 2 min 0 min 226 W/m 20,9 km/h (4 Bft) 100,00 %
13.02.2017 15:40 10,9 C 15,0 C 8,9 C 58 % 0 lf 1026,3 hPa 0,0 l/m 2 min 0 min 221 W/m 29,3 km/h (5 Bft) 91,49 %
13.02.2017 15:42 10,9 C 14,4 C 8,9 C 58 % 0 lf 1026,2 hPa 0,0 l/m 2 min 0 min 216 W/m 31,4 km/h (5 Bft) 93,62 %
13.02.2017 15:44 10,9 C 15,0 C 8,9 C 58 % 0 lf 1026,2 hPa 0,0 l/m 2 min 0 min 210 W/m 27,2 km/h (4 Bft) 91,49 %
13.02.2017 15:46 10,9 C 14,4 C 8,9 C 57 % 0 lf 1026,3 hPa 0,0 l/m 2 min 0 min 205 W/m 31,4 km/h (5 Bft) 97,87 %
13.02.2017 15:48 10,9 C 13,9 C 8,9 C 57 % 0 lf 1026,3 hPa 0,0 l/m 2 min 0 min 201 W/m 31,4 km/h (5 Bft) 95,65 %
13.02.2017 15:50 10,8 C 13,9 C 8,9 C 57 % 0 lf 1026,3 hPa 0,0 l/m 2 min 0 min 195 W/m 31,4 km/h (5 Bft) 95,74 %
13.02.2017 15:52 10,8 C 13,9 C 8,9 C 58 % 0 lf 1026,3 hPa 0,0 l/m 2 min 0 min 190 W/m 18,8 km/h (3 Bft) 97,87 %
13.02.2017 15:54 10,8 C 14,4 C 8,9 C 58 % 0 lf 1026,3 hPa 0,0 l/m 2 min 0 min 185 W/m 33,5 km/h (5 Bft) 91,49 %
13.02.2017 15:56 10,8 C 14,4 C 8,9 C 58 % 0 lf 1026,3 hPa 0,0 l/m 2 min 0 min 181 W/m 27,2 km/h (4 Bft) 95,74 %
13.02.2017 15:58 10,8 C 14,4 C 8,3 C 58 % 0 lf 1026,2 hPa 0,0 l/m 2 min 0 min 175 W/m 23,0 km/h (4 Bft) 91,30 %
13.02.2017 16:00 10,8 C 14,4 C 8,3 C 58 % 0 lf 1026,2 hPa 0,0 l/m 2 min 0 min 171 W/m 18,8 km/h (3 Bft) 95,74 %
13.02.2017 16:02 10,8 C 15,0 C 8,3 C 58 % 0 lf 1026,2 hPa 0,0 l/m 2 min 0 min 165 W/m 33,5 km/h (5 Bft) 91,49 %
13.02.2017 16:04 10,8 C 14,4 C 8,3 C 58 % 0 lf 1026,2 hPa 0,0 l/m 2 min 0 min 161 W/m 27,2 km/h (4 Bft) 91,49 %
13.02.2017 16:06 10,8 C 15,0 C 8,3 C 58 % 0 lf 1026,2 hPa 0,0 l/m 2 min 0 min 156 W/m 25,1 km/h (4 Bft) 94,00 %
13.02.2017 16:08 10,8 C 14,4 C 8,3 C 58 % 0 lf 1026,1 hPa 0,0 l/m 2 min 0 min 151 W/m 23,0 km/h (4 Bft) 93,62 %
13.02.2017 16:10 10,7 C 12,8 C 8,3 C 58 % 0 lf 1026,1 hPa 0,0 l/m 2 min 0 min 145 W/m 27,2 km/h (4 Bft) 91,30 %
13.02.2017 16:12 10,7 C 11,7 C 8,3 C 58 % 0 lf 1026,1 hPa 0,0 l/m 2 min 0 min 141 W/m 23,0 km/h (4 Bft) 89,36 %
13.02.2017 16:14 10,7 C 11,7 C 8,3 C 58 % 0 lf 1026,0 hPa 0,0 l/m 2 min 0 min 135 W/m 27,2 km/h (4 Bft) 93,62 %
13.02.2017 16:16 10,7 C 11,1 C 8,3 C 58 % 0 lf 1026,0 hPa 0,0 l/m 2 min 0 min 131 W/m 25,1 km/h (4 Bft) 89,36 %
13.02.2017 16:18 10,7 C 11,1 C 8,3 C 58 % 0 lf 1026,0 hPa 0,0 l/m 2 min 0 min 126 W/m 23,0 km/h (4 Bft) 93,62 %
13.02.2017 16:20 10,6 C 11,1 C 7,8 C 59 % 0 lf 1025,9 hPa 0,0 l/m 2 min 0 min 121 W/m 20,9 km/h (4 Bft) 93,62 %
13.02.2017 16:22 10,6 C 10,6 C 8,3 C 59 % 0 lf 1026,0 hPa 0,0 l/m 2 min 0 min 118 W/m 16,7 km/h (3 Bft) 89,13 %
13.02.2017 16:24 10,6 C 10,6 C 7,8 C 59 % 0 lf 1026,0 hPa 0,0 l/m 2 min 0 min 113 W/m 16,7 km/h (3 Bft) 91,49 %
13.02.2017 16:26 10,6 C 10,6 C 7,8 C 59 % 0 lf 1026,0 hPa 0,0 l/m 2 min 0 min 109 W/m 18,8 km/h (3 Bft) 93,62 %
13.02.2017 16:28 10,6 C 11,1 C 7,8 C 59 % 0 lf 1025,9 hPa 0,0 l/m 2 min 0 min 104 W/m 23,0 km/h (4 Bft) 89,36 %
13.02.2017 16:30 10,5 C 10,6 C 7,8 C 59 % 0 lf 1025,9 hPa 0,0 l/m 2 min 0 min 100 W/m 18,8 km/h (3 Bft) 91,49 %
13.02.2017 16:32 10,5 C 10,6 C 7,8 C 60 % 0 lf 1025,9 hPa 0,0 l/m 2 min 0 min 95 W/m 20,9 km/h (4 Bft) 91,49 %
13.02.2017 16:34 10,4 C 10,6 C 7,8 C 60 % 0 lf 1025,9 hPa 0,0 l/m 2 min 0 min 90 W/m 16,7 km/h (3 Bft) 93,48 %
13.02.2017 16:36 10,4 C 10,6 C 7,8 C 60 % 0 lf 1025,9 hPa 0,0 l/m 2 min 0 min 86 W/m 20,9 km/h (4 Bft) 94,44 %
13.02.2017 16:38 10,4 C 10,6 C 7,8 C 61 % 0 lf 1025,8 hPa 0,0 l/m 2 min 0 min 82 W/m 20,9 km/h (4 Bft) 93,62 %
13.02.2017 16:40 10,4 C 10,6 C 7,8 C 61 % 0 lf 1025,8 hPa 0,0 l/m 2 min 0 min 79 W/m 23,0 km/h (4 Bft) 91,49 %
13.02.2017 16:42 10,3 C 10,6 C 7,8 C 61 % 0 lf 1025,9 hPa 0,0 l/m 2 min 0 min 73 W/m 23,0 km/h (4 Bft) 91,49 %
13.02.2017 16:44 10,3 C 10,6 C 7,8 C 61 % 0 lf 1025,9 hPa 0,0 l/m 2 min 0 min 70 W/m 31,4 km/h (5 Bft) 93,62 %
13.02.2017 16:46 10,3 C 10,6 C 7,8 C 61 % 0 lf 1025,9 hPa 0,0 l/m 0 min 0 min 66 W/m 20,9 km/h (4 Bft) 93,62 %
13.02.2017 16:48 10,2 C 10,6 C 7,8 C 61 % 0 lf 1025,8 hPa 0,0 l/m 0 min 0 min 62 W/m 18,8 km/h (3 Bft) 91,30 %
13.02.2017 16:50 10,2 C 10,6 C 7,8 C 61 % 0 lf 1025,9 hPa 0,0 l/m 0 min 0 min 58 W/m 20,9 km/h (4 Bft) 93,62 %
13.02.2017 16:52 10,2 C 10,6 C 7,8 C 60 % 0 lf 1025,9 hPa 0,0 l/m 0 min 0 min 54 W/m 18,8 km/h (3 Bft) 91,49 %
13.02.2017 16:54 10,2 C 10,6 C 7,8 C 60 % 0 lf 1025,9 hPa 0,0 l/m 0 min 0 min 51 W/m 23,0 km/h (4 Bft) 95,74 %
13.02.2017 16:56 10,2 C 10,6 C 7,8 C 60 % 0 lf 1025,8 hPa 0,0 l/m 0 min 0 min 47 W/m 23,0 km/h (4 Bft) 93,62 %
13.02.2017 16:58 10,1 C 10,6 C 7,2 C 60 % 0 lf 1025,8 hPa 0,0 l/m 0 min 0 min 45 W/m 20,9 km/h (4 Bft) 95,74 %
13.02.2017 17:00 10,1 C 10,0 C 7,2 C 60 % 0 lf 1025,8 hPa 0,0 l/m 0 min 0 min 41 W/m 23,0 km/h (4 Bft) 93,48 %
13.02.2017 17:02 10,1 C 10,0 C 7,2 C 60 % 0 lf 1025,8 hPa 0,0 l/m 0 min 0 min 40 W/m 20,9 km/h (4 Bft) 93,62 %
13.02.2017 17:04 10,1 C 10,0 C 7,2 C 60 % 0 lf 1025,8 hPa 0,0 l/m 0 min 0 min 38 W/m 20,9 km/h (4 Bft) 91,49 %
13.02.2017 17:06 10,0 C 10,0 C 7,2 C 60 % 0 lf 1025,8 hPa 0,0 l/m 0 min 0 min 36 W/m 23,0 km/h (4 Bft) 95,74 %
13.02.2017 17:08 10,0 C 10,0 C 7,2 C 61 % 0 lf 1025,8 hPa 0,0 l/m 0 min 0 min 35 W/m 18,8 km/h (3 Bft) 95,74 %
13.02.2017 17:10 10,0 C 10,0 C 7,2 C 60 % 0 lf 1025,8 hPa 0,0 l/m 0 min 0 min 35 W/m 29,3 km/h (5 Bft) 97,87 %
13.02.2017 17:12 9,9 C 10,0 C 7,2 C 61 % 0 lf 1025,8 hPa 0,0 l/m 0 min 0 min 33 W/m 20,9 km/h (4 Bft) 97,83 %
13.02.2017 17:14 9,9 C 10,0 C 7,2 C 61 % 0 lf 1025,9 hPa 0,0 l/m 0 min 0 min 33 W/m 27,2 km/h (4 Bft) 97,87 %
13.02.2017 17:16 9,9 C 10,0 C 7,2 C 60 % 0 lf 1025,9 hPa 0,0 l/m 2 min 0 min 32 W/m 20,9 km/h (4 Bft) 97,87 %
13.02.2017 17:18 9,9 C 10,0 C 6,7 C 61 % 0 lf 1025,9 hPa 0,0 l/m 2 min 0 min 31 W/m 20,9 km/h (4 Bft) 95,74 %
13.02.2017 17:20 9,8 C 9,4 C 7,2 C 60 % 0 lf 1025,9 hPa 0,0 l/m 2 min 0 min 30 W/m 20,9 km/h (4 Bft) 100,00 %
13.02.2017 17:22 9,8 C 9,4 C 6,7 C 61 % 0 lf 1026,0 hPa 0,0 l/m 2 min 0 min 28 W/m 20,9 km/h (4 Bft) 100,00 %
13.02.2017 17:24 9,8 C 9,4 C 6,7 C 61 % 0 lf 1026,0 hPa 0,0 l/m 2 min 0 min 27 W/m 14,6 km/h (3 Bft) 100,00 %
13.02.2017 17:26 9,7 C 9,4 C 6,7 C 61 % 0 lf 1026,0 hPa 0,0 l/m 2 min 0 min 26 W/m 20,9 km/h (4 Bft) 95,74 %
13.02.2017 17:28 9,7 C 9,4 C 6,7 C 61 % 0 lf 1025,9 hPa 0,0 l/m 2 min 0 min 25 W/m 27,2 km/h (4 Bft) 97,87 %
13.02.2017 17:30 9,6 C 9,4 C 6,7 C 60 % 0 lf 1026,0 hPa 0,0 l/m 2 min 0 min 24 W/m 23,0 km/h (4 Bft) 97,87 %
13.02.2017 17:32 9,6 C 9,4 C 6,7 C 60 % 0 lf 1026,0 hPa 0,0 l/m 2 min 0 min 23 W/m 18,8 km/h (3 Bft) 97,87 %
13.02.2017 17:34 9,6 C 9,4 C 6,7 C 60 % 0 lf 1026,0 hPa 0,0 l/m 2 min 0 min 21 W/m 16,7 km/h (3 Bft) 100,00 %
13.02.2017 17:36 9,6 C 9,4 C 6,1 C 60 % 0 lf 1025,9 hPa 0,0 l/m 0 min 0 min 19 W/m 14,6 km/h (3 Bft) 98,18 %
13.02.2017 17:38 9,6 C 9,4 C 6,1 C 60 % 0 lf 1025,9 hPa 0,0 l/m 0 min 0 min 18 W/m 18,8 km/h (3 Bft) 95,74 %
13.02.2017 17:40 9,5 C 8,9 C 5,6 C 61 % 0 lf 1025,9 hPa 0,0 l/m 0 min 0 min 17 W/m 20,9 km/h (4 Bft) 97,87 %
13.02.2017 17:42 9,4 C 8,9 C 6,1 C 61 % 0 lf 1025,9 hPa 0,0 l/m 0 min 0 min 16 W/m 18,8 km/h (3 Bft) 100,00 %
13.02.2017 17:44 9,4 C 8,9 C 5,6 C 61 % 0 lf 1026,0 hPa 0,0 l/m 0 min 0 min 14 W/m 20,9 km/h (4 Bft) 97,83 %
13.02.2017 17:46 9,3 C 8,9 C 5,6 C 61 % 0 lf 1026,0 hPa 0,0 l/m 0 min 0 min 14 W/m 18,8 km/h (3 Bft) 93,62 %
13.02.2017 17:48 9,3 C 8,9 C 5,6 C 61 % 0 lf 1026,0 hPa 0,0 l/m 0 min 0 min 12 W/m 20,9 km/h (4 Bft) 100,00 %
13.02.2017 17:50 9,2 C 8,9 C 5,6 C 61 % 0 lf 1026,0 hPa 0,0 l/m 0 min 0 min 12 W/m 18,8 km/h (3 Bft) 100,00 %
13.02.2017 17:52 9,2 C 8,9 C 5,6 C 61 % 0 lf 1025,9 hPa 0,0 l/m 0 min 0 min 12 W/m 14,6 km/h (3 Bft) 93,62 %
13.02.2017 17:54 9,2 C 8,9 C 5,6 C 61 % 0 lf 1026,0 hPa 0,0 l/m 0 min 0 min 11 W/m 16,7 km/h (3 Bft) 97,87 %
13.02.2017 17:56 9,1 C 8,3 C 5,0 C 61 % 0 lf 1026,0 hPa 0,0 l/m 0 min 0 min 11 W/m 12,6 km/h (3 Bft) 95,65 %
13.02.2017 17:58 9,1 C 8,3 C 5,0 C 62 % 0 lf 1026,0 hPa 0,0 l/m 0 min 0 min 10 W/m 16,7 km/h (3 Bft) 100,00 %
13.02.2017 18:00 9,0 C 8,3 C 4,4 C 62 % 0 lf 1026,0 hPa 0,0 l/m 0 min 0 min 9 W/m 20,9 km/h (4 Bft) 100,00 %
13.02.2017 18:02 8,9 C 8,3 C 5,0 C 62 % 0 lf 1026,0 hPa 0,0 l/m 0 min 0 min 0 W/m 14,6 km/h (3 Bft) 98,00 %
13.02.2017 18:04 8,9 C 8,3 C 4,4 C 63 % 0 lf 1026,0 hPa 0,0 l/m 0 min 0 min 0 W/m 14,6 km/h (3 Bft) 97,22 %
13.02.2017 18:06 8,8 C 8,3 C 4,4 C 63 % 0 lf 1026,0 hPa 0,0 l/m 0 min 0 min 0 W/m 10,5 km/h (2 Bft) 95,74 %
13.02.2017 18:08 8,8 C 7,8 C 5,0 C 63 % 0 lf 1026,0 hPa 0,0 l/m 0 min 0 min 0 W/m 12,6 km/h (3 Bft) 95,65 %
13.02.2017 18:10 8,7 C 8,3 C 4,4 C 63 % 0 lf 1026,0 hPa 0,0 l/m 0 min 0 min 0 W/m 14,6 km/h (3 Bft) 97,87 %
13.02.2017 18:12 8,7 C 7,8 C 4,4 C 63 % 0 lf 1026,0 hPa 0,0 l/m 0 min 0 min 0 W/m 8,4 km/h (2 Bft) 97,87 %
13.02.2017 18:14 8,6 C 7,8 C 3,9 C 63 % 0 lf 1026,1 hPa 0,0 l/m 0 min 0 min 0 W/m 12,6 km/h (3 Bft) 95,74 %
13.02.2017 18:16 8,6 C 7,2 C 3,9 C 63 % 0 lf 1026,1 hPa 0,0 l/m 0 min 0 min 0 W/m 10,5 km/h (2 Bft) 97,87 %
13.02.2017 18:18 8,5 C 7,2 C 3,3 C 64 % 0 lf 1026,1 hPa 0,0 l/m 0 min 0 min 0 W/m 10,5 km/h (2 Bft) 97,87 %
13.02.2017 18:20 8,4 C 6,7 C 2,8 C 64 % 0 lf 1026,0 hPa 0,0 l/m 0 min 0 min 0 W/m 10,5 km/h (2 Bft) 97,83 %
13.02.2017 18:22 8,3 C 6,7 C 2,8 C 64 % 0 lf 1026,1 hPa 0,0 l/m 0 min 0 min 0 W/m 10,5 km/h (2 Bft) 95,74 %
13.02.2017 18:24 8,3 C 6,1 C 2,2 C 64 % 0 lf 1026,1 hPa 0,0 l/m 0 min 0 min 0 W/m 10,5 km/h (2 Bft) 95,74 %
13.02.2017 18:26 8,2 C 6,1 C 1,7 C 65 % 0 lf 1026,1 hPa 0,0 l/m 0 min 0 min 0 W/m 14,6 km/h (3 Bft) 97,87 %
13.02.2017 18:28 8,1 C 6,1 C 1,7 C 65 % 0 lf 1026,0 hPa 0,0 l/m 0 min 0 min 0 W/m 6,3 km/h (2 Bft) 97,87 %
13.02.2017 18:30 8,0 C 6,1 C 1,7 C 65 % 0 lf 1026,1 hPa 0,0 l/m 0 min 0 min 0 W/m 6,3 km/h (2 Bft) 95,74 %
13.02.2017 18:32 7,9 C 5,6 C 1,1 C 65 % 0 lf 1026,1 hPa 0,0 l/m 0 min 0 min 0 W/m 10,5 km/h (2 Bft) 97,83 %
13.02.2017 18:34 7,8 C 5,6 C 1,1 C 66 % 0 lf 1026,1 hPa 0,0 l/m 0 min 0 min 0 W/m 10,5 km/h (2 Bft) 95,74 %
13.02.2017 18:36 7,7 C 5,6 C 1,1 C 66 % 0 lf 1026,0 hPa 0,0 l/m 0 min 0 min 0 W/m 16,7 km/h (3 Bft) 95,74 %
13.02.2017 18:38 7,6 C 5,6 C 1,1 C 67 % 0 lf 1026,1 hPa 0,0 l/m 0 min 0 min 0 W/m 10,5 km/h (2 Bft) 97,87 %
13.02.2017 18:40 7,6 C 6,1 C 1,1 C 68 % 0 lf 1026,0 hPa 0,0 l/m 0 min 0 min 0 W/m 12,6 km/h (3 Bft) 95,74 %
13.02.2017 18:42 7,4 C 6,1 C 1,1 C 68 % 0 lf 1025,9 hPa 0,0 l/m 0 min 0 min 0 W/m 12,6 km/h (3 Bft) 97,87 %
13.02.2017 18:44 7,3 C 6,1 C 1,1 C 69 % 0 lf 1025,9 hPa 0,0 l/m 0 min 0 min 0 W/m 12,6 km/h (3 Bft) 100,00 %
13.02.2017 18:46 7,2 C 6,1 C 1,1 C 69 % 0 lf 1025,9 hPa 0,0 l/m 0 min 0 min 0 W/m 10,5 km/h (2 Bft) 97,87 %
13.02.2017 18:48 7,2 C 6,1 C 1,1 C 70 % 0 lf 1026,0 hPa 0,0 l/m 0 min 0 min 0 W/m 12,6 km/h (3 Bft) 100,00 %
13.02.2017 18:50 7,1 C 6,1 C 1,1 C 70 % 0 lf 1025,9 hPa 0,0 l/m 0 min 0 min 0 W/m 12,6 km/h (3 Bft) 97,87 %
13.02.2017 18:52 7,0 C 5,6 C 1,1 C 71 % 0 lf 1025,9 hPa 0,0 l/m 0 min 0 min 0 W/m 12,6 km/h (3 Bft) 97,87 %
13.02.2017 18:54 6,9 C 5,6 C 0,6 C 71 % 0 lf 1025,9 hPa 0,0 l/m 0 min 0 min 0 W/m 12,6 km/h (3 Bft) 97,87 %
13.02.2017 18:56 6,8 C 5,6 C 0,6 C 71 % 0 lf 1025,9 hPa 0,0 l/m 0 min 0 min 0 W/m 12,6 km/h (3 Bft) 100,00 %
13.02.2017 18:58 6,8 C 5,6 C 0,6 C 71 % 0 lf 1025,9 hPa 0,0 l/m 0 min 0 min 0 W/m 10,5 km/h (2 Bft) 97,87 %
13.02.2017 19:00 6,7 C 5,6 C 0,6 C 72 % 0 lf 1025,9 hPa 0,0 l/m 0 min 0 min 0 W/m 10,5 km/h (2 Bft) 100,00 %
13.02.2017 19:02 6,7 C 5,6 C 0,6 C 72 % 0 lf 1025,9 hPa 0,0 l/m 0 min 0 min 0 W/m 14,6 km/h (3 Bft) 100,00 %
13.02.2017 19:04 6,6 C 5,0 C 1,1 C 72 % 0 lf 1025,9 hPa 0,0 l/m 0 min 0 min 0 W/m 14,6 km/h (3 Bft) 97,87 %
13.02.2017 19:06 6,5 C 5,6 C 1,7 C 73 % 0 lf 1025,9 hPa 0,0 l/m 0 min 0 min 0 W/m 14,6 km/h (3 Bft) 93,88 %
13.02.2017 19:08 6,4 C 5,6 C 1,7 C 73 % 0 lf 1025,9 hPa 0,0 l/m 0 min 0 min 0 W/m 14,6 km/h (3 Bft) 97,87 %
13.02.2017 19:10 6,4 C 5,6 C 2,2 C 73 % 0 lf 1025,9 hPa 0,0 l/m 0 min 0 min 0 W/m 18,8 km/h (3 Bft) 93,62 %
13.02.2017 19:12 6,3 C 5,6 C 2,2 C 74 % 0 lf 1025,9 hPa 0,0 l/m 0 min 0 min 0 W/m 25,1 km/h (4 Bft) 97,87 %
13.02.2017 19:14 6,2 C 5,6 C 2,2 C 74 % 0 lf 1025,9 hPa 0,0 l/m 0 min 0 min 0 W/m 12,6 km/h (3 Bft) 97,87 %
13.02.2017 19:16 6,2 C 5,6 C 2,2 C 74 % 0 lf 1026,0 hPa 0,0 l/m 0 min 0 min 0 W/m 14,6 km/h (3 Bft) 100,00 %
13.02.2017 19:18 6,1 C 5,6 C 1,7 C 74 % 0 lf 1025,9 hPa 0,0 l/m 0 min 0 min 0 W/m 14,6 km/h (3 Bft) 91,49 %
13.02.2017 19:20 6,1 C 5,6 C 1,7 C 74 % 0 lf 1025,9 hPa 0,0 l/m 0 min 0 min 0 W/m 20,9 km/h (4 Bft) 95,74 %
13.02.2017 19:22 6,0 C 5,6 C 2,2 C 75 % 0 lf 1025,9 hPa 0,0 l/m 0 min 0 min 0 W/m 20,9 km/h (4 Bft) 93,62 %
13.02.2017 19:24 5,9 C 5,6 C 2,2 C 75 % 0 lf 1025,9 hPa 0,0 l/m 0 min 0 min 0 W/m 20,9 km/h (4 Bft) 95,74 %
13.02.2017 19:26 5,9 C 5,6 C 2,2 C 75 % 0 lf 1026,0 hPa 0,0 l/m 0 min 0 min 0 W/m 20,9 km/h (4 Bft) 93,62 %
13.02.2017 19:28 5,8 C 5,6 C 2,2 C 75 % 0 lf 1026,1 hPa 0,0 l/m 0 min 0 min 0 W/m 20,9 km/h (4 Bft) 95,65 %
13.02.2017 19:30 5,8 C 5,6 C 2,2 C 75 % 0 lf 1026,1 hPa 0,0 l/m 0 min 0 min 0 W/m 20,9 km/h (4 Bft) 89,36 %
13.02.2017 19:32 5,7 C 5,0 C 2,2 C 76 % 0 lf 1026,2 hPa 0,0 l/m 0 min 0 min 0 W/m 16,7 km/h (3 Bft) 93,62 %
13.02.2017 19:34 5,7 C 5,0 C 2,2 C 76 % 0 lf 1026,2 hPa 0,0 l/m 0 min 0 min 0 W/m 23,0 km/h (4 Bft) 87,23 %
13.02.2017 19:36 5,7 C 5,6 C 2,2 C 76 % 0 lf 1026,2 hPa 0,0 l/m 0 min 0 min 0 W/m 23,0 km/h (4 Bft) 91,84 %
13.02.2017 19:38 5,6 C 5,6 C 2,2 C 76 % 0 lf 1026,2 hPa 0,0 l/m 0 min 0 min 0 W/m 23,0 km/h (4 Bft) 93,62 %
13.02.2017 19:40 5,6 C 5,6 C 2,8 C 76 % 0 lf 1026,1 hPa 0,0 l/m 0 min 0 min 0 W/m 14,6 km/h (3 Bft) 91,30 %
13.02.2017 19:42 5,6 C 5,6 C 2,8 C 76 % 0 lf 1026,1 hPa 0,0 l/m 0 min 0 min 0 W/m 20,9 km/h (4 Bft) 93,62 %
13.02.2017 19:44 5,6 C 5,6 C 2,8 C 76 % 0 lf 1026,1 hPa 0,0 l/m 0 min 0 min 0 W/m 20,9 km/h (4 Bft) 85,11 %
13.02.2017 19:46 5,6 C 5,6 C 2,8 C 76 % 0 lf 1026,1 hPa 0,0 l/m 0 min 0 min 0 W/m 20,9 km/h (4 Bft) 93,62 %
13.02.2017 19:48 5,6 C 6,1 C 3,3 C 76 % 0 lf 1026,1 hPa 0,0 l/m 0 min 0 min 0 W/m 23,0 km/h (4 Bft) 93,62 %
13.02.2017 19:50 5,6 C 6,1 C 2,8 C 76 % 0 lf 1026,1 hPa 0,0 l/m 0 min 0 min 0 W/m 18,8 km/h (3 Bft) 93,48 %
13.02.2017 19:52 5,6 C 6,1 C 3,3 C 76 % 0 lf 1026,1 hPa 0,0 l/m 0 min 0 min 0 W/m 18,8 km/h (3 Bft) 91,49 %
13.02.2017 19:54 5,6 C 5,6 C 2,8 C 76 % 0 lf 1026,2 hPa 0,0 l/m 0 min 0 min 0 W/m 18,8 km/h (3 Bft) 97,87 %
13.02.2017 19:56 5,6 C 5,6 C 3,3 C 76 % 0 lf 1026,2 hPa 0,0 l/m 0 min 0 min 0 W/m 16,7 km/h (3 Bft) 89,36 %
13.02.2017 19:58 5,6 C 5,6 C 2,8 C 76 % 0 lf 1026,2 hPa 0,0 l/m 0 min 0 min 0 W/m 18,8 km/h (3 Bft) 95,74 %
13.02.2017 20:00 5,6 C 5,6 C 2,8 C 75 % 0 lf 1026,2 hPa 0,0 l/m 0 min 0 min 0 W/m 18,8 km/h (3 Bft) 89,36 %
13.02.2017 20:02 5,6 C 5,6 C 2,8 C 75 % 0 lf 1026,3 hPa 0,0 l/m 0 min 0 min 0 W/m 20,9 km/h (4 Bft) 95,65 %
13.02.2017 20:04 5,6 C 5,6 C 2,2 C 75 % 0 lf 1026,2 hPa 0,0 l/m 0 min 0 min 0 W/m 20,9 km/h (4 Bft) 93,62 %
13.02.2017 20:06 5,5 C 5,6 C 2,8 C 75 % 0 lf 1026,2 hPa 0,0 l/m 0 min 0 min 0 W/m 27,2 km/h (4 Bft) 91,67 %
13.02.2017 20:08 5,4 C 5,6 C 2,8 C 75 % 0 lf 1026,2 hPa 0,0 l/m 0 min 0 min 0 W/m 20,9 km/h (4 Bft) 91,30 %
13.02.2017 20:10 5,4 C 5,6 C 2,8 C 75 % 0 lf 1026,2 hPa 0,0 l/m 0 min 0 min 0 W/m 18,8 km/h (3 Bft) 91,49 %
13.02.2017 20:12 5,4 C 5,6 C 2,8 C 75 % 0 lf 1026,2 hPa 0,0 l/m 0 min 0 min 0 W/m 18,8 km/h (3 Bft) 91,49 %
13.02.2017 20:14 5,4 C 5,6 C 2,8 C 75 % 0 lf 1026,2 hPa 0,0 l/m 0 min 0 min 0 W/m 16,7 km/h (3 Bft) 93,62 %
13.02.2017 20:16 5,4 C 5,0 C 2,2 C 75 % 0 lf 1026,1 hPa 0,0 l/m 0 min 0 min 0 W/m 18,8 km/h (3 Bft) 93,62 %
13.02.2017 20:18 5,4 C 5,0 C 2,2 C 75 % 0 lf 1026,1 hPa 0,0 l/m 0 min 0 min 0 W/m 16,7 km/h (3 Bft) 95,65 %
13.02.2017 20:20 5,4 C 5,0 C 1,7 C 75 % 0 lf 1026,1 hPa 0,0 l/m 0 min 0 min 0 W/m 16,7 km/h (3 Bft) 91,49 %
13.02.2017 20:22 5,3 C 5,0 C 1,7 C 75 % 0 lf 1026,1 hPa 0,0 l/m 0 min 0 min 0 W/m 16,7 km/h (3 Bft) 95,74 %
13.02.2017 20:24 5,3 C 5,0 C 1,7 C 75 % 0 lf 1026,2 hPa 0,0 l/m 0 min 0 min 0 W/m 20,9 km/h (4 Bft) 97,87 %
13.02.2017 20:26 5,2 C 5,0 C 1,7 C 75 % 0 lf 1026,2 hPa 0,0 l/m 0 min 0 min 0 W/m 20,9 km/h (4 Bft) 87,23 %
13.02.2017 20:28 5,2 C 5,0 C 2,2 C 75 % 0 lf 1026,2 hPa 0,0 l/m 0 min 0 min 0 W/m 20,9 km/h (4 Bft) 95,74 %
13.02.2017 20:30 5,2 C 5,0 C 2,2 C 75 % 0 lf 1026,2 hPa 0,0 l/m 0 min 0 min 0 W/m 23,0 km/h (4 Bft) 100,00 %
13.02.2017 20:32 5,1 C 5,0 C 2,2 C 75 % 0 lf 1026,2 hPa 0,0 l/m 0 min 0 min 0 W/m 27,2 km/h (4 Bft) 97,87 %
13.02.2017 20:34 5,1 C 5,0 C 2,2 C 75 % 0 lf 1026,2 hPa 0,0 l/m 0 min 0 min 0 W/m 14,6 km/h (3 Bft) 91,49 %
13.02.2017 20:36 5,0 C 4,4 C 1,7 C 75 % 0 lf 1026,2 hPa 0,0 l/m 0 min 0 min 0 W/m 20,9 km/h (4 Bft) 94,44 %
13.02.2017 20:38 5,0 C 4,4 C 1,7 C 75 % 0 lf 1026,2 hPa 0,0 l/m 0 min 0 min 0 W/m 18,8 km/h (3 Bft) 100,00 %
13.02.2017 20:40 4,9 C 4,4 C 1,7 C 75 % 0 lf 1026,3 hPa 0,0 l/m 0 min 0 min 0 W/m 14,6 km/h (3 Bft) 97,83 %
13.02.2017 20:42 4,9 C 4,4 C 1,7 C 75 % 0 lf 1026,2 hPa 0,0 l/m 0 min 0 min 0 W/m 23,0 km/h (4 Bft) 97,87 %
13.02.2017 20:44 4,8 C 4,4 C 1,7 C 75 % 0 lf 1026,3 hPa 0,0 l/m 0 min 0 min 5 W/m 16,7 km/h (3 Bft) 97,87 %
13.02.2017 20:46 4,8 C 4,4 C 1,7 C 75 % 0 lf 1026,3 hPa 0,0 l/m 0 min 0 min 5 W/m 16,7 km/h (3 Bft) 93,62 %
13.02.2017 20:48 4,7 C 4,4 C 1,1 C 75 % 0 lf 1026,3 hPa 0,0 l/m 0 min 0 min 5 W/m 20,9 km/h (4 Bft) 97,87 %
13.02.2017 20:50 4,7 C 3,9 C 1,1 C 75 % 0 lf 1026,3 hPa 0,0 l/m 0 min 0 min 5 W/m 14,6 km/h (3 Bft) 97,87 %
13.02.2017 20:52 4,6 C 3,9 C 1,1 C 75 % 0 lf 1026,3 hPa 0,0 l/m 0 min 0 min 5 W/m 10,5 km/h (2 Bft) 100,00 %
13.02.2017 20:54 4,6 C 3,9 C 1,1 C 75 % 0 lf 1026,2 hPa 0,0 l/m 0 min 0 min 5 W/m 14,6 km/h (3 Bft) 95,74 %
13.02.2017 20:56 4,6 C 3,9 C 1,1 C 75 % 0 lf 1026,2 hPa 0,0 l/m 0 min 0 min 5 W/m 14,6 km/h (3 Bft) 100,00 %
13.02.2017 20:58 4,5 C 3,9 C 1,1 C 75 % 0 lf 1026,3 hPa 0,0 l/m 0 min 0 min 5 W/m 10,5 km/h (2 Bft) 100,00 %
13.02.2017 21:00 4,4 C 3,9 C 1,1 C 75 % 0 lf 1026,3 hPa 0,0 l/m 0 min 0 min 5 W/m 18,8 km/h (3 Bft) 100,00 %
13.02.2017 21:02 4,4 C 3,9 C 0,6 C 76 % 0 lf 1026,3 hPa 0,0 l/m 0 min 0 min 5 W/m 14,6 km/h (3 Bft) 100,00 %
13.02.2017 21:04 4,3 C 3,9 C 0,6 C 76 % 0 lf 1026,3 hPa 0,0 l/m 0 min 0 min 5 W/m 18,8 km/h (3 Bft) 100,00 %
13.02.2017 21:06 4,3 C 3,3 C 0,6 C 76 % 0 lf 1026,3 hPa 0,0 l/m 0 min 0 min 5 W/m 18,8 km/h (3 Bft) 98,00 %
13.02.2017 21:08 4,2 C 3,9 C 1,1 C 76 % 0 lf 1026,3 hPa 0,0 l/m 0 min 0 min 5 W/m 16,7 km/h (3 Bft) 100,00 %
13.02.2017 21:10 4,2 C 3,9 C 1,1 C 75 % 0 lf 1026,4 hPa 0,0 l/m 0 min 0 min 5 W/m 14,6 km/h (3 Bft) 100,00 %
13.02.2017 21:12 4,2 C 3,3 C 0,6 C 76 % 0 lf 1026,3 hPa 0,0 l/m 0 min 0 min 5 W/m 14,6 km/h (3 Bft) 100,00 %
13.02.2017 21:14 4,1 C 3,3 C 0,6 C 76 % 0 lf 1026,3 hPa 0,0 l/m 0 min 0 min 5 W/m 12,6 km/h (3 Bft) 97,83 %
13.02.2017 21:16 4,1 C 3,3 C 0,6 C 76 % 0 lf 1026,4 hPa 0,0 l/m 0 min 0 min 5 W/m 23,0 km/h (4 Bft) 97,87 %
13.02.2017 21:18 4,0 C 3,3 C 0,6 C 76 % 0 lf 1026,4 hPa 0,0 l/m 0 min 0 min 5 W/m 14,6 km/h (3 Bft) 95,74 %
13.02.2017 21:20 3,9 C 3,3 C 0,6 C 76 % 0 lf 1026,4 hPa 0,0 l/m 0 min 0 min 5 W/m 6,3 km/h (2 Bft) 100,00 %
13.02.2017 21:22 3,9 C 3,3 C 0,0 C 76 % 0 lf 1026,4 hPa 0,0 l/m 0 min 0 min 5 W/m 14,6 km/h (3 Bft) 100,00 %
13.02.2017 21:24 3,9 C 3,3 C 0,0 C 76 % 0 lf 1026,4 hPa 0,0 l/m 0 min 0 min 0 W/m 12,6 km/h (3 Bft) 100,00 %
13.02.2017 21:26 3,8 C 3,3 C 0,0 C 76 % 0 lf 1026,4 hPa 0,0 l/m 0 min 0 min 0 W/m 14,6 km/h (3 Bft) 95,74 %
13.02.2017 21:28 3,8 C 3,3 C 0,0 C 76 % 0 lf 1026,4 hPa 0,0 l/m 0 min 0 min 0 W/m 18,8 km/h (3 Bft) 100,00 %
13.02.2017 21:30 3,7 C 3,3 C 0,0 C 76 % 0 lf 1026,5 hPa 0,0 l/m 0 min 0 min 0 W/m 16,7 km/h (3 Bft) 97,87 %
13.02.2017 21:32 3,7 C 3,3 C 0,0 C 76 % 0 lf 1026,5 hPa 0,0 l/m 0 min 0 min 0 W/m 12,6 km/h (3 Bft) 95,74 %
13.02.2017 21:34 3,6 C 3,3 C 0,0 C 77 % 0 lf 1026,5 hPa 0,0 l/m 0 min 0 min 0 W/m 14,6 km/h (3 Bft) 97,87 %
13.02.2017 21:36 3,6 C 3,3 C 0,0 C 77 % 0 lf 1026,4 hPa 0,0 l/m 0 min 0 min 0 W/m 14,6 km/h (3 Bft) 97,92 %
13.02.2017 21:38 3,5 C 2,8 C 0,0 C 77 % 0 lf 1026,4 hPa 0,0 l/m 0 min 0 min 0 W/m 14,6 km/h (3 Bft) 97,87 %
13.02.2017 21:40 3,4 C 2,8 C 0,0 C 77 % 0 lf 1026,3 hPa 0,0 l/m 0 min 0 min 5 W/m 14,6 km/h (3 Bft) 95,74 %
13.02.2017 21:42 3,4 C 3,3 C 0,0 C 77 % 0 lf 1026,4 hPa 0,0 l/m 0 min 0 min 5 W/m 16,7 km/h (3 Bft) 97,87 %
13.02.2017 21:44 3,4 C 3,3 C 0,0 C 77 % 0 lf 1026,4 hPa 0,0 l/m 0 min 0 min 5 W/m 16,7 km/h (3 Bft) 93,62 %
13.02.2017 21:46 3,3 C 3,3 C 0,0 C 77 % 0 lf 1026,3 hPa 0,0 l/m 0 min 0 min 5 W/m 18,8 km/h (3 Bft) 95,74 %
13.02.2017 21:48 3,3 C 3,3 C 0,0 C 77 % 0 lf 1026,3 hPa 0,0 l/m 0 min 0 min 5 W/m 18,8 km/h (3 Bft) 95,65 %
13.02.2017 21:50 3,3 C 2,8 C 0,0 C 77 % 0 lf 1026,4 hPa 0,0 l/m 0 min 0 min 5 W/m 14,6 km/h (3 Bft) 97,87 %
13.02.2017 21:52 3,2 C 2,8 C 0,0 C 77 % 0 lf 1026,4 hPa 0,0 l/m 0 min 0 min 5 W/m 16,7 km/h (3 Bft) 97,87 %
13.02.2017 21:54 3,2 C 2,8 C 0,0 C 77 % 0 lf 1026,4 hPa 0,0 l/m 0 min 0 min 5 W/m 18,8 km/h (3 Bft) 95,74 %
13.02.2017 21:56 3,2 C 2,8 C 0,0 C 78 % 0 lf 1026,4 hPa 0,0 l/m 0 min 0 min 5 W/m 16,7 km/h (3 Bft) 95,74 %
13.02.2017 21:58 3,1 C 2,8 C 0,0 C 78 % 0 lf 1026,4 hPa 0,0 l/m 0 min 0 min 5 W/m 16,7 km/h (3 Bft) 95,74 %
13.02.2017 22:00 3,1 C 2,8 C 0,0 C 78 % 0 lf 1026,4 hPa 0,0 l/m 0 min 0 min 5 W/m 16,7 km/h (3 Bft) 95,65 %
13.02.2017 22:02 3,1 C 2,8 C 0,0 C 78 % 0 lf 1026,4 hPa 0,0 l/m 0 min 0 min 5 W/m 18,8 km/h (3 Bft) 97,87 %
13.02.2017 22:04 3,0 C 2,8 C 0,0 C 78 % 0 lf 1026,4 hPa 0,0 l/m 0 min 0 min 5 W/m 18,8 km/h (3 Bft) 91,49 %
13.02.2017 22:06 3,0 C 2,8 C 0,0 C 78 % 0 lf 1026,4 hPa 0,0 l/m 0 min 0 min 5 W/m 18,8 km/h (3 Bft) 97,14 %
13.02.2017 22:08 2,9 C 2,8 C 0,0 C 78 % 0 lf 1026,4 hPa 0,0 l/m 0 min 0 min 5 W/m 14,6 km/h (3 Bft) 93,62 %
13.02.2017 22:10 2,9 C 2,8 C 0,0 C 78 % 0 lf 1026,3 hPa 0,0 l/m 0 min 0 min 5 W/m 14,6 km/h (3 Bft) 93,62 %
13.02.2017 22:12 2,9 C 2,8 C 0,0 C 78 % 0 lf 1026,4 hPa 0,0 l/m 0 min 0 min 5 W/m 16,7 km/h (3 Bft) 89,36 %
13.02.2017 22:14 2,9 C 2,8 C 0,0 C 78 % 0 lf 1026,4 hPa 0,0 l/m 0 min 0 min 5 W/m 16,7 km/h (3 Bft) 95,65 %
13.02.2017 22:16 2,8 C 2,8 C 0,0 C 78 % 0 lf 1026,4 hPa 0,0 l/m 0 min 0 min 5 W/m 12,6 km/h (3 Bft) 95,74 %
13.02.2017 22:18 2,8 C 2,8 C 0,0 C 78 % 0 lf 1026,4 hPa 0,0 l/m 0 min 0 min 5 W/m 20,9 km/h (4 Bft) 95,74 %
13.02.2017 22:20 2,8 C 2,8 C 0,0 C 78 % 0 lf 1026,4 hPa 0,0 l/m 0 min 0 min 5 W/m 23,0 km/h (4 Bft) 93,62 %
13.02.2017 22:22 2,8 C 2,8 C 0,0 C 78 % 0 lf 1026,4 hPa 0,0 l/m 0 min 0 min 5 W/m 20,9 km/h (4 Bft) 93,62 %
13.02.2017 22:24 2,7 C 2,8 C 0,0 C 78 % 0 lf 1026,3 hPa 0,0 l/m 0 min 0 min 5 W/m 12,6 km/h (3 Bft) 93,62 %
13.02.2017 22:26 2,7 C 2,8 C 0,0 C 78 % 0 lf 1026,4 hPa 0,0 l/m 0 min 0 min 5 W/m 25,1 km/h (4 Bft) 97,83 %
13.02.2017 22:28 2,7 C 2,8 C 0,0 C 78 % 0 lf 1026,4 hPa 0,0 l/m 0 min 0 min 5 W/m 16,7 km/h (3 Bft) 91,49 %
13.02.2017 22:30 2,7 C 2,8 C 0,0 C 78 % 0 lf 1026,4 hPa 0,0 l/m 0 min 0 min 5 W/m 16,7 km/h (3 Bft) 97,87 %
13.02.2017 22:32 2,7 C 2,8 C 0,0 C 78 % 0 lf 1026,4 hPa 0,0 l/m 0 min 0 min 5 W/m 16,7 km/h (3 Bft) 93,62 %
13.02.2017 22:34 2,6 C 2,8 C 0,0 C 78 % 0 lf 1026,4 hPa 0,0 l/m 0 min 0 min 5 W/m 20,9 km/h (4 Bft) 91,49 %
13.02.2017 22:36 2,6 C 2,8 C 0,0 C 79 % 0 lf 1026,3 hPa 0,0 l/m 0 min 0 min 5 W/m 20,9 km/h (4 Bft) 96,23 %
13.02.2017 22:38 2,6 C 2,8 C 0,0 C 79 % 0 lf 1026,3 hPa 0,0 l/m 0 min 0 min 5 W/m 16,7 km/h (3 Bft) 97,87 %
13.02.2017 22:40 2,6 C 2,8 C 0,0 C 79 % 0 lf 1026,4 hPa 0,0 l/m 0 min 0 min 5 W/m 20,9 km/h (4 Bft) 95,74 %
13.02.2017 22:42 2,6 C 2,8 C 0,6 C 79 % 0 lf 1026,4 hPa 0,0 l/m 0 min 0 min 5 W/m 16,7 km/h (3 Bft) 95,74 %
13.02.2017 22:44 2,6 C 2,8 C 0,6 C 79 % 0 lf 1026,4 hPa 0,0 l/m 0 min 0 min 5 W/m 16,7 km/h (3 Bft) 97,87 %
13.02.2017 22:46 2,6 C 2,8 C 0,0 C 79 % 0 lf 1026,4 hPa 0,0 l/m 0 min 0 min 5 W/m 16,7 km/h (3 Bft) 91,49 %
13.02.2017 22:48 2,5 C 2,8 C 0,0 C 79 % 0 lf 1026,4 hPa 0,0 l/m 0 min 0 min 5 W/m 18,8 km/h (3 Bft) 97,83 %
13.02.2017 22:50 2,5 C 2,8 C 0,0 C 79 % 0 lf 1026,4 hPa 0,0 l/m 0 min 0 min 5 W/m 16,7 km/h (3 Bft) 97,87 %
13.02.2017 22:52 2,5 C 2,8 C 0,0 C 79 % 0 lf 1026,4 hPa 0,0 l/m 0 min 0 min 5 W/m 16,7 km/h (3 Bft) 93,62 %
13.02.2017 22:54 2,5 C 2,8 C 0,0 C 79 % 0 lf 1026,4 hPa 0,0 l/m 0 min 0 min 5 W/m 14,6 km/h (3 Bft) 97,87 %
13.02.2017 22:56 2,5 C 2,8 C 0,0 C 79 % 0 lf 1026,4 hPa 0,0 l/m 0 min 0 min 5 W/m 14,6 km/h (3 Bft) 93,62 %
13.02.2017 22:58 2,5 C 2,8 C 0,0 C 79 % 0 lf 1026,4 hPa 0,0 l/m 0 min 0 min 5 W/m 16,7 km/h (3 Bft) 97,87 %
13.02.2017 23:00 2,5 C 2,8 C 0,0 C 79 % 0 lf 1026,4 hPa 0,0 l/m 0 min 0 min 5 W/m 14,6 km/h (3 Bft) 97,83 %
13.02.2017 23:02 2,5 C 2,2 C 0,0 C 79 % 0 lf 1026,4 hPa 0,0 l/m 0 min 0 min 5 W/m 20,9 km/h (4 Bft) 97,87 %
13.02.2017 23:04 2,4 C 2,2 C 0,0 C 79 % 0 lf 1026,4 hPa 0,0 l/m 0 min 0 min 5 W/m 12,6 km/h (3 Bft) 95,74 %
13.02.2017 23:06 2,4 C 2,2 C -0,6 C 79 % 0 lf 1026,4 hPa 0,0 l/m 0 min 0 min 5 W/m 16,7 km/h (3 Bft) 98,00 %
13.02.2017 23:08 2,4 C 2,2 C -0,6 C 79 % 0 lf 1026,4 hPa 0,0 l/m 0 min 0 min 5 W/m 20,9 km/h (4 Bft) 95,74 %
13.02.2017 23:10 2,4 C 2,2 C -0,6 C 79 % 0 lf 1026,4 hPa 0,0 l/m 0 min 0 min 5 W/m 18,8 km/h (3 Bft) 97,87 %
13.02.2017 23:12 2,3 C 2,2 C -0,6 C 79 % 0 lf 1026,5 hPa 0,0 l/m 0 min 0 min 0 W/m 20,9 km/h (4 Bft) 97,83 %
13.02.2017 23:14 2,3 C 1,7 C -0,6 C 79 % 0 lf 1026,5 hPa 0,0 l/m 0 min 0 min 0 W/m 14,6 km/h (3 Bft) 95,74 %
13.02.2017 23:16 2,3 C 1,7 C -0,6 C 79 % 0 lf 1026,5 hPa 0,0 l/m 0 min 0 min 0 W/m 12,6 km/h (3 Bft) 93,62 %
13.02.2017 23:18 2,3 C 2,2 C -1,1 C 79 % 0 lf 1026,4 hPa 0,0 l/m 0 min 0 min 0 W/m 10,5 km/h (2 Bft) 97,87 %
13.02.2017 23:20 2,2 C 2,2 C -0,6 C 79 % 0 lf 1026,5 hPa 0,0 l/m 0 min 0 min 0 W/m 18,8 km/h (3 Bft) 95,74 %
13.02.2017 23:22 2,2 C 2,2 C -0,6 C 79 % 0 lf 1026,5 hPa 0,0 l/m 0 min 0 min 0 W/m 16,7 km/h (3 Bft) 97,83 %
13.02.2017 23:24 2,2 C 2,2 C -0,6 C 79 % 0 lf 1026,4 hPa 0,0 l/m 0 min 0 min 0 W/m 14,6 km/h (3 Bft) 93,62 %
13.02.2017 23:26 2,2 C 2,2 C -0,6 C 79 % 0 lf 1026,4 hPa 0,0 l/m 0 min 0 min 0 W/m 8,4 km/h (2 Bft) 93,62 %
13.02.2017 23:28 2,2 C 2,2 C -0,6 C 79 % 0 lf 1026,5 hPa 0,0 l/m 0 min 0 min 0 W/m 14,6 km/h (3 Bft) 97,87 %
13.02.2017 23:30 2,1 C 2,2 C -0,6 C 79 % 0 lf 1026,5 hPa 0,0 l/m 0 min 0 min 0 W/m 14,6 km/h (3 Bft) 95,74 %
13.02.2017 23:32 2,1 C 2,2 C -0,6 C 79 % 0 lf 1026,5 hPa 0,0 l/m 0 min 0 min 0 W/m 18,8 km/h (3 Bft) 97,87 %
13.02.2017 23:34 2,1 C 2,2 C -0,6 C 79 % 0 lf 1026,6 hPa 0,0 l/m 0 min 0 min 0 W/m 16,7 km/h (3 Bft) 93,48 %
13.02.2017 23:36 2,1 C 2,2 C -0,6 C 79 % 0 lf 1026,7 hPa 0,0 l/m 0 min 0 min 0 W/m 16,7 km/h (3 Bft) 95,74 %
13.02.2017 23:38 2,1 C 2,2 C -0,6 C 80 % 0 lf 1026,6 hPa 0,0 l/m 0 min 0 min 0 W/m 18,8 km/h (3 Bft) 95,74 %
13.02.2017 23:40 2,1 C 2,2 C -0,6 C 80 % 0 lf 1026,6 hPa 0,0 l/m 0 min 0 min 0 W/m 14,6 km/h (3 Bft) 97,87 %
13.02.2017 23:42 2,0 C 2,2 C -0,6 C 80 % 0 lf 1026,6 hPa 0,0 l/m 0 min 0 min 0 W/m 16,7 km/h (3 Bft) 97,87 %
13.02.2017 23:44 2,0 C 2,2 C -0,6 C 80 % 0 lf 1026,6 hPa 0,0 l/m 0 min 0 min 0 W/m 12,6 km/h (3 Bft) 95,65 %
13.02.2017 23:46 2,0 C 2,2 C -0,6 C 80 % 0 lf 1026,6 hPa 0,0 l/m 0 min 0 min 0 W/m 16,7 km/h (3 Bft) 95,74 %
13.02.2017 23:48 2,0 C 2,2 C -0,6 C 80 % 0 lf 1026,4 hPa 0,0 l/m 0 min 0 min 0 W/m 12,6 km/h (3 Bft) 95,74 %
13.02.2017 23:50 2,0 C 2,2 C 0,0 C 80 % 0 lf 1026,5 hPa 0,0 l/m 0 min 0 min 0 W/m 14,6 km/h (3 Bft) 97,87 %
13.02.2017 23:52 2,0 C 2,2 C 0,0 C 80 % 0 lf 1026,5 hPa 0,0 l/m 0 min 0 min 0 W/m 16,7 km/h (3 Bft) 97,87 %
13.02.2017 23:54 2,0 C 2,2 C 0,0 C 80 % 0 lf 1026,5 hPa 0,0 l/m 0 min 0 min 0 W/m 20,9 km/h (4 Bft) 93,62 %
13.02.2017 23:56 2,0 C 2,2 C -0,6 C 80 % 0 lf 1026,4 hPa 0,0 l/m 0 min 0 min 0 W/m 14,6 km/h (3 Bft) 95,65 %
13.02.2017 23:58 1,9 C 1,7 C -0,6 C 80 % 0 lf 1026,5 hPa 0,0 l/m 0 min 0 min 0 W/m 16,7 km/h (3 Bft) 95,74 %
_ Min-Zeit 03:40 03:16 02:48 15:46 05:30 16:38 - - - - 01:54 08:58
Minimum _ -1,0 C -1,7 C -2,8 C 57 % 0 lf 1025,8 hPa - - - - 4,2 km/h (1 Bft) 84,78 %
_ Max-Zeit 15:38 15:20 14:56 04:20 04:04 08:36 00:00 09:26 00:00 12:06 12:32 01:00
Maximum _ 10,9 C 16,1 C 11,1 C 95 % 7 lf 1028,5 hPa 0,0 l/m 2 min 0 min 448 W/m 48,1 km/h
O-SO (6 Bft)
100,00 %
Durchschnitt _ 3,7 C 4,9 C 1,7 C 80 % 1 lf 1027,3 hPa #0,0 l/m #7:32 h #0 min. 159 W/m 19,8 km/h (3 Bft) 96,01 %
© 2017 W. Hausmann